<?xml version="1.0" encoding="UTF-8" standalone="yes"?>
<gpx
 xmlns="http://www.topografix.com/GPX/1/1"
 creator="OziExplorer Version 3956f - http://www.oziexplorer.com"
 version="1.1"
 xmlns:xsi="http://www.w3.org/2001/XMLSchema-instance"
 xsi:schemaLocation="http://www.topografix.com/GPX/1/1 http://www.topografix.com/GPX/1/1/gpx.xsd">
<metadata>
 <time>2021-04-10T18:18:37Z</time>
 <bounds minlat="31.790860" minlon="34.976140" maxlat="31.832500" maxlon="35.018900"/>
</metadata>
<trk>
 <name>Latrun-Eshtaol1, 20 km.</name>
 <desc>Latrun-Eshtaol1, 20 km.</desc>
<trkseg>
<trkpt lat="31.8325000" lon="34.9784700">
<ele>217.970001</ele>
<time>2021-04-10T21:18:37.418Z</time>
</trkpt>
<trkpt lat="31.8324300" lon="34.9784900">
<ele>217.609985</ele>
<time>2021-04-10T21:18:37.418Z</time>
</trkpt>
<trkpt lat="31.8324000" lon="34.9785500">
<ele>218.120010</ele>
<time>2021-04-10T21:18:37.418Z</time>
</trkpt>
<trkpt lat="31.8323400" lon="34.9785600">
<ele>217.639999</ele>
<time>2021-04-10T21:18:37.418Z</time>
</trkpt>
<trkpt lat="31.8323000" lon="34.9785100">
<ele>216.649994</ele>
<time>2021-04-10T21:18:37.418Z</time>
</trkpt>
<trkpt lat="31.8320400" lon="34.9781600">
<ele>207.549988</ele>
<time>2021-04-10T21:18:37.418Z</time>
</trkpt>
<trkpt lat="31.8318200" lon="34.9777800">
<ele>201.120010</ele>
<time>2021-04-10T21:18:37.418Z</time>
</trkpt>
<trkpt lat="31.8320100" lon="34.9775800">
<ele>197.250000</ele>
<time>2021-04-10T21:18:37.418Z</time>
</trkpt>
<trkpt lat="31.8322600" lon="34.9772600">
<ele>194.680008</ele>
<time>2021-04-10T21:18:37.418Z</time>
</trkpt>
<trkpt lat="31.8323700" lon="34.9766800">
<ele>197.019989</ele>
<time>2021-04-10T21:18:37.418Z</time>
</trkpt>
<trkpt lat="31.8323900" lon="34.9765400">
<ele>197.389999</ele>
<time>2021-04-10T21:18:37.419Z</time>
</trkpt>
<trkpt lat="31.8323800" lon="34.9764900">
<ele>197.410004</ele>
<time>2021-04-10T21:18:37.419Z</time>
</trkpt>
<trkpt lat="31.8323600" lon="34.9764400">
<ele>197.400009</ele>
<time>2021-04-10T21:18:37.419Z</time>
</trkpt>
<trkpt lat="31.8323300" lon="34.9764100">
<ele>197.339996</ele>
<time>2021-04-10T21:18:37.419Z</time>
</trkpt>
<trkpt lat="31.8322900" lon="34.9763900">
<ele>197.240005</ele>
<time>2021-04-10T21:18:37.419Z</time>
</trkpt>
<trkpt lat="31.8322500" lon="34.9763700">
<ele>196.750000</ele>
<time>2021-04-10T21:18:37.419Z</time>
</trkpt>
<trkpt lat="31.8322100" lon="34.9763600">
<ele>196.360001</ele>
<time>2021-04-10T21:18:37.419Z</time>
</trkpt>
<trkpt lat="31.8317200" lon="34.9761900">
<ele>189.789993</ele>
<time>2021-04-10T21:18:37.419Z</time>
</trkpt>
<trkpt lat="31.8311000" lon="34.9761500">
<ele>182.569992</ele>
<time>2021-04-10T21:18:37.419Z</time>
</trkpt>
<trkpt lat="31.8305900" lon="34.9762900">
<ele>185.650009</ele>
<time>2021-04-10T21:18:37.419Z</time>
</trkpt>
<trkpt lat="31.8302500" lon="34.9763500">
<ele>183.930008</ele>
<time>2021-04-10T21:18:37.419Z</time>
</trkpt>
<trkpt lat="31.8298900" lon="34.9764600">
<ele>177.470001</ele>
<time>2021-04-10T21:18:37.419Z</time>
</trkpt>
<trkpt lat="31.8293200" lon="34.9763900">
<ele>175.449997</ele>
<time>2021-04-10T21:18:37.419Z</time>
</trkpt>
<trkpt lat="31.8290100" lon="34.9763300">
<ele>177.069992</ele>
<time>2021-04-10T21:18:37.419Z</time>
</trkpt>
<trkpt lat="31.8289600" lon="34.9763300">
<ele>177.280014</ele>
<time>2021-04-10T21:18:37.419Z</time>
</trkpt>
<trkpt lat="31.8285300" lon="34.9764300">
<ele>178.099991</ele>
<time>2021-04-10T21:18:37.419Z</time>
</trkpt>
<trkpt lat="31.8283600" lon="34.9768500">
<ele>178.099991</ele>
<time>2021-04-10T21:18:37.419Z</time>
</trkpt>
<trkpt lat="31.8282300" lon="34.9773300">
<ele>177.759995</ele>
<time>2021-04-10T21:18:37.419Z</time>
</trkpt>
<trkpt lat="31.8280900" lon="34.9778700">
<ele>178.589996</ele>
<time>2021-04-10T21:18:37.419Z</time>
</trkpt>
<trkpt lat="31.8279300" lon="34.9783600">
<ele>178.240005</ele>
<time>2021-04-10T21:18:37.420Z</time>
</trkpt>
<trkpt lat="31.8277900" lon="34.9786800">
<ele>180.790009</ele>
<time>2021-04-10T21:18:37.420Z</time>
</trkpt>
<trkpt lat="31.8277000" lon="34.9790800">
<ele>184.100006</ele>
<time>2021-04-10T21:18:37.420Z</time>
</trkpt>
<trkpt lat="31.8275600" lon="34.9795000">
<ele>182.590012</ele>
<time>2021-04-10T21:18:37.420Z</time>
</trkpt>
<trkpt lat="31.8273400" lon="34.9801300">
<ele>184.239990</ele>
<time>2021-04-10T21:18:37.420Z</time>
</trkpt>
<trkpt lat="31.8272400" lon="34.9805800">
<ele>186.400009</ele>
<time>2021-04-10T21:18:37.420Z</time>
</trkpt>
<trkpt lat="31.8272300" lon="34.9806500">
<ele>187.100006</ele>
<time>2021-04-10T21:18:37.420Z</time>
</trkpt>
<trkpt lat="31.8272300" lon="34.9806600">
<ele>187.210007</ele>
<time>2021-04-10T21:18:37.420Z</time>
</trkpt>
<trkpt lat="31.8271900" lon="34.9810700">
<ele>190.139999</ele>
<time>2021-04-10T21:18:37.420Z</time>
</trkpt>
<trkpt lat="31.8271200" lon="34.9815500">
<ele>190.110001</ele>
<time>2021-04-10T21:18:37.420Z</time>
</trkpt>
<trkpt lat="31.8271200" lon="34.9815500">
<ele>190.110001</ele>
<time>2021-04-10T21:18:37.420Z</time>
</trkpt>
<trkpt lat="31.8271200" lon="34.9815500">
<ele>190.110001</ele>
<time>2021-04-10T21:18:37.420Z</time>
</trkpt>
<trkpt lat="31.8270300" lon="34.9822000">
<ele>192.180008</ele>
<time>2021-04-10T21:18:37.420Z</time>
</trkpt>
<trkpt lat="31.8269800" lon="34.9827200">
<ele>192.490005</ele>
<time>2021-04-10T21:18:37.420Z</time>
</trkpt>
<trkpt lat="31.8268100" lon="34.9840500">
<ele>191.790009</ele>
<time>2021-04-10T21:18:37.420Z</time>
</trkpt>
<trkpt lat="31.8268000" lon="34.9842500">
<ele>192.190002</ele>
<time>2021-04-10T21:18:37.420Z</time>
</trkpt>
<trkpt lat="31.8267300" lon="34.9845700">
<ele>189.360001</ele>
<time>2021-04-10T21:18:37.420Z</time>
</trkpt>
<trkpt lat="31.8258700" lon="34.9842800">
<ele>192.710007</ele>
<time>2021-04-10T21:18:37.420Z</time>
</trkpt>
<trkpt lat="31.8258400" lon="34.9842700">
<ele>192.950012</ele>
<time>2021-04-10T21:18:37.420Z</time>
</trkpt>
<trkpt lat="31.8257400" lon="34.9842900">
<ele>193.149994</ele>
<time>2021-04-10T21:18:37.420Z</time>
</trkpt>
<trkpt lat="31.8255300" lon="34.9844000">
<ele>193.659988</ele>
<time>2021-04-10T21:18:37.421Z</time>
</trkpt>
<trkpt lat="31.8255200" lon="34.9844100">
<ele>193.619995</ele>
<time>2021-04-10T21:18:37.421Z</time>
</trkpt>
<trkpt lat="31.8254800" lon="34.9844200">
<ele>193.369995</ele>
<time>2021-04-10T21:18:37.421Z</time>
</trkpt>
<trkpt lat="31.8253600" lon="34.9845400">
<ele>193.619995</ele>
<time>2021-04-10T21:18:37.421Z</time>
</trkpt>
<trkpt lat="31.8252100" lon="34.9847200">
<ele>194.740005</ele>
<time>2021-04-10T21:18:37.421Z</time>
</trkpt>
<trkpt lat="31.8252100" lon="34.9848100">
<ele>195.309998</ele>
<time>2021-04-10T21:18:37.421Z</time>
</trkpt>
<trkpt lat="31.8251100" lon="34.9851900">
<ele>197.160004</ele>
<time>2021-04-10T21:18:37.421Z</time>
</trkpt>
<trkpt lat="31.8250500" lon="34.9853300">
<ele>197.169998</ele>
<time>2021-04-10T21:18:37.421Z</time>
</trkpt>
<trkpt lat="31.8249700" lon="34.9854700">
<ele>196.710007</ele>
<time>2021-04-10T21:18:37.421Z</time>
</trkpt>
<trkpt lat="31.8246500" lon="34.9859000">
<ele>203.480011</ele>
<time>2021-04-10T21:18:37.421Z</time>
</trkpt>
<trkpt lat="31.8245400" lon="34.9860900">
<ele>205.600006</ele>
<time>2021-04-10T21:18:37.421Z</time>
</trkpt>
<trkpt lat="31.8242700" lon="34.9867100">
<ele>202.020004</ele>
<time>2021-04-10T21:18:37.421Z</time>
</trkpt>
<trkpt lat="31.8241900" lon="34.9868500">
<ele>202.369995</ele>
<time>2021-04-10T21:18:37.421Z</time>
</trkpt>
<trkpt lat="31.8240600" lon="34.9870000">
<ele>204.039993</ele>
<time>2021-04-10T21:18:37.421Z</time>
</trkpt>
<trkpt lat="31.8237700" lon="34.9871800">
<ele>209.139999</ele>
<time>2021-04-10T21:18:37.421Z</time>
</trkpt>
<trkpt lat="31.8237200" lon="34.9872400">
<ele>210.119995</ele>
<time>2021-04-10T21:18:37.422Z</time>
</trkpt>
<trkpt lat="31.8236800" lon="34.9873200">
<ele>211.019989</ele>
<time>2021-04-10T21:18:37.422Z</time>
</trkpt>
<trkpt lat="31.8236400" lon="34.9874700">
<ele>211.760010</ele>
<time>2021-04-10T21:18:37.422Z</time>
</trkpt>
<trkpt lat="31.8236400" lon="34.9876200">
<ele>212.179993</ele>
<time>2021-04-10T21:18:37.422Z</time>
</trkpt>
<trkpt lat="31.8237200" lon="34.9884200">
<ele>208.850006</ele>
<time>2021-04-10T21:18:37.422Z</time>
</trkpt>
<trkpt lat="31.8237200" lon="34.9887700">
<ele>208.660004</ele>
<time>2021-04-10T21:18:37.422Z</time>
</trkpt>
<trkpt lat="31.8237200" lon="34.9887700">
<ele>208.660004</ele>
<time>2021-04-10T21:18:37.422Z</time>
</trkpt>
<trkpt lat="31.8237200" lon="34.9890500">
<ele>207.659988</ele>
<time>2021-04-10T21:18:37.422Z</time>
</trkpt>
<trkpt lat="31.8237000" lon="34.9892400">
<ele>206.419998</ele>
<time>2021-04-10T21:18:37.422Z</time>
</trkpt>
<trkpt lat="31.8236400" lon="34.9893900">
<ele>205.440002</ele>
<time>2021-04-10T21:18:37.422Z</time>
</trkpt>
<trkpt lat="31.8235200" lon="34.9896000">
<ele>205.000015</ele>
<time>2021-04-10T21:18:37.422Z</time>
</trkpt>
<trkpt lat="31.8234200" lon="34.9897300">
<ele>206.080002</ele>
<time>2021-04-10T21:18:37.422Z</time>
</trkpt>
<trkpt lat="31.8231800" lon="34.9899400">
<ele>208.520004</ele>
<time>2021-04-10T21:18:37.422Z</time>
</trkpt>
<trkpt lat="31.8228300" lon="34.9901600">
<ele>213.370010</ele>
<time>2021-04-10T21:18:37.422Z</time>
</trkpt>
<trkpt lat="31.8227800" lon="34.9902100">
<ele>214.480011</ele>
<time>2021-04-10T21:18:37.422Z</time>
</trkpt>
<trkpt lat="31.8227100" lon="34.9903400">
<ele>216.610001</ele>
<time>2021-04-10T21:18:37.422Z</time>
</trkpt>
<trkpt lat="31.8226800" lon="34.9904600">
<ele>217.840012</ele>
<time>2021-04-10T21:18:37.422Z</time>
</trkpt>
<trkpt lat="31.8226500" lon="34.9910100">
<ele>220.430008</ele>
<time>2021-04-10T21:18:37.423Z</time>
</trkpt>
<trkpt lat="31.8225700" lon="34.9914200">
<ele>220.059998</ele>
<time>2021-04-10T21:18:37.423Z</time>
</trkpt>
<trkpt lat="31.8225100" lon="34.9916000">
<ele>220.710007</ele>
<time>2021-04-10T21:18:37.423Z</time>
</trkpt>
<trkpt lat="31.8224600" lon="34.9918500">
<ele>221.480011</ele>
<time>2021-04-10T21:18:37.423Z</time>
</trkpt>
<trkpt lat="31.8224500" lon="34.9919400">
<ele>221.540009</ele>
<time>2021-04-10T21:18:37.423Z</time>
</trkpt>
<trkpt lat="31.8223800" lon="34.9926200">
<ele>222.619995</ele>
<time>2021-04-10T21:18:37.423Z</time>
</trkpt>
<trkpt lat="31.8224100" lon="34.9928700">
<ele>221.419998</ele>
<time>2021-04-10T21:18:37.423Z</time>
</trkpt>
<trkpt lat="31.8225300" lon="34.9932700">
<ele>214.549988</ele>
<time>2021-04-10T21:18:37.423Z</time>
</trkpt>
<trkpt lat="31.8225300" lon="34.9933300">
<ele>213.520004</ele>
<time>2021-04-10T21:18:37.423Z</time>
</trkpt>
<trkpt lat="31.8225400" lon="34.9934000">
<ele>212.630005</ele>
<time>2021-04-10T21:18:37.423Z</time>
</trkpt>
<trkpt lat="31.8225200" lon="34.9934800">
<ele>212.129990</ele>
<time>2021-04-10T21:18:37.423Z</time>
</trkpt>
<trkpt lat="31.8224700" lon="34.9936000">
<ele>211.559998</ele>
<time>2021-04-10T21:18:37.423Z</time>
</trkpt>
<trkpt lat="31.8224000" lon="34.9936900">
<ele>211.279999</ele>
<time>2021-04-10T21:18:37.423Z</time>
</trkpt>
<trkpt lat="31.8221500" lon="34.9939400">
<ele>210.000000</ele>
<time>2021-04-10T21:18:37.423Z</time>
</trkpt>
<trkpt lat="31.8218400" lon="34.9944100">
<ele>210.520004</ele>
<time>2021-04-10T21:18:37.423Z</time>
</trkpt>
<trkpt lat="31.8213900" lon="34.9948400">
<ele>217.559998</ele>
<time>2021-04-10T21:18:37.423Z</time>
</trkpt>
<trkpt lat="31.8212300" lon="34.9949500">
<ele>219.000015</ele>
<time>2021-04-10T21:18:37.423Z</time>
</trkpt>
<trkpt lat="31.8211300" lon="34.9949800">
<ele>219.940002</ele>
<time>2021-04-10T21:18:37.423Z</time>
</trkpt>
<trkpt lat="31.8205900" lon="34.9950700">
<ele>222.309998</ele>
<time>2021-04-10T21:18:37.423Z</time>
</trkpt>
<trkpt lat="31.8202000" lon="34.9951600">
<ele>222.169998</ele>
<time>2021-04-10T21:18:37.423Z</time>
</trkpt>
<trkpt lat="31.8197800" lon="34.9952700">
<ele>224.240005</ele>
<time>2021-04-10T21:18:37.423Z</time>
</trkpt>
<trkpt lat="31.8193600" lon="34.9953700">
<ele>224.179993</ele>
<time>2021-04-10T21:18:37.423Z</time>
</trkpt>
<trkpt lat="31.8193100" lon="34.9953900">
<ele>224.050003</ele>
<time>2021-04-10T21:18:37.423Z</time>
</trkpt>
<trkpt lat="31.8193100" lon="34.9954000">
<ele>223.830002</ele>
<time>2021-04-10T21:18:37.424Z</time>
</trkpt>
<trkpt lat="31.8193100" lon="34.9954000">
<ele>223.830002</ele>
<time>2021-04-10T21:18:37.424Z</time>
</trkpt>
<trkpt lat="31.8193100" lon="34.9953900">
<ele>224.050003</ele>
<time>2021-04-10T21:18:37.424Z</time>
</trkpt>
<trkpt lat="31.8190500" lon="34.9954900">
<ele>223.720001</ele>
<time>2021-04-10T21:18:37.424Z</time>
</trkpt>
<trkpt lat="31.8188100" lon="34.9957000">
<ele>223.539993</ele>
<time>2021-04-10T21:18:37.424Z</time>
</trkpt>
<trkpt lat="31.8188400" lon="34.9958300">
<ele>222.550003</ele>
<time>2021-04-10T21:18:37.424Z</time>
</trkpt>
<trkpt lat="31.8188900" lon="34.9960000">
<ele>222.580002</ele>
<time>2021-04-10T21:18:37.424Z</time>
</trkpt>
<trkpt lat="31.8191500" lon="34.9964500">
<ele>221.300003</ele>
<time>2021-04-10T21:18:37.424Z</time>
</trkpt>
<trkpt lat="31.8191700" lon="34.9965700">
<ele>223.259995</ele>
<time>2021-04-10T21:18:37.424Z</time>
</trkpt>
<trkpt lat="31.8191900" lon="34.9966600">
<ele>224.959991</ele>
<time>2021-04-10T21:18:37.424Z</time>
</trkpt>
<trkpt lat="31.8191900" lon="34.9967300">
<ele>225.809998</ele>
<time>2021-04-10T21:18:37.424Z</time>
</trkpt>
<trkpt lat="31.8191900" lon="34.9968300">
<ele>226.949997</ele>
<time>2021-04-10T21:18:37.424Z</time>
</trkpt>
<trkpt lat="31.8191300" lon="34.9970300">
<ele>228.580002</ele>
<time>2021-04-10T21:18:37.424Z</time>
</trkpt>
<trkpt lat="31.8186500" lon="34.9978400">
<ele>234.229996</ele>
<time>2021-04-10T21:18:37.424Z</time>
</trkpt>
<trkpt lat="31.8186500" lon="34.9978400">
<ele>234.229996</ele>
<time>2021-04-10T21:18:37.424Z</time>
</trkpt>
<trkpt lat="31.8186000" lon="34.9979300">
<ele>235.699997</ele>
<time>2021-04-10T21:18:37.424Z</time>
</trkpt>
<trkpt lat="31.8185200" lon="34.9981700">
<ele>239.460007</ele>
<time>2021-04-10T21:18:37.424Z</time>
</trkpt>
<trkpt lat="31.8184700" lon="34.9984200">
<ele>243.089996</ele>
<time>2021-04-10T21:18:37.424Z</time>
</trkpt>
<trkpt lat="31.8184700" lon="34.9988800">
<ele>246.480011</ele>
<time>2021-04-10T21:18:37.424Z</time>
</trkpt>
<trkpt lat="31.8185600" lon="34.9991600">
<ele>246.979996</ele>
<time>2021-04-10T21:18:37.424Z</time>
</trkpt>
<trkpt lat="31.8186200" lon="34.9993100">
<ele>247.500000</ele>
<time>2021-04-10T21:18:37.424Z</time>
</trkpt>
<trkpt lat="31.8186900" lon="34.9994000">
<ele>247.789993</ele>
<time>2021-04-10T21:18:37.424Z</time>
</trkpt>
<trkpt lat="31.8188300" lon="34.9992800">
<ele>246.940002</ele>
<time>2021-04-10T21:18:37.424Z</time>
</trkpt>
<trkpt lat="31.8191100" lon="34.9988900">
<ele>249.190002</ele>
<time>2021-04-10T21:18:37.424Z</time>
</trkpt>
<trkpt lat="31.8192200" lon="34.9987900">
<ele>250.400009</ele>
<time>2021-04-10T21:18:37.424Z</time>
</trkpt>
<trkpt lat="31.8192500" lon="34.9987700">
<ele>250.690002</ele>
<time>2021-04-10T21:18:37.424Z</time>
</trkpt>
<trkpt lat="31.8194000" lon="34.9987700">
<ele>252.690002</ele>
<time>2021-04-10T21:18:37.425Z</time>
</trkpt>
<trkpt lat="31.8194900" lon="34.9988300">
<ele>254.910004</ele>
<time>2021-04-10T21:18:37.425Z</time>
</trkpt>
<trkpt lat="31.8195200" lon="34.9988600">
<ele>255.759995</ele>
<time>2021-04-10T21:18:37.425Z</time>
</trkpt>
<trkpt lat="31.8195500" lon="34.9988400">
<ele>256.019989</ele>
<time>2021-04-10T21:18:37.425Z</time>
</trkpt>
<trkpt lat="31.8194800" lon="34.9990600">
<ele>259.750000</ele>
<time>2021-04-10T21:18:37.425Z</time>
</trkpt>
<trkpt lat="31.8192300" lon="34.9994800">
<ele>262.089996</ele>
<time>2021-04-10T21:18:37.425Z</time>
</trkpt>
<trkpt lat="31.8191900" lon="34.9996400">
<ele>265.859985</ele>
<time>2021-04-10T21:18:37.425Z</time>
</trkpt>
<trkpt lat="31.8192100" lon="34.9998500">
<ele>271.320007</ele>
<time>2021-04-10T21:18:37.425Z</time>
</trkpt>
<trkpt lat="31.8193200" lon="35.0003000">
<ele>277.720001</ele>
<time>2021-04-10T21:18:37.425Z</time>
</trkpt>
<trkpt lat="31.8193300" lon="35.0008000">
<ele>282.040009</ele>
<time>2021-04-10T21:18:37.425Z</time>
</trkpt>
<trkpt lat="31.8192600" lon="35.0013100">
<ele>287.539978</ele>
<time>2021-04-10T21:18:37.425Z</time>
</trkpt>
<trkpt lat="31.8192000" lon="35.0022400">
<ele>295.559998</ele>
<time>2021-04-10T21:18:37.425Z</time>
</trkpt>
<trkpt lat="31.8192000" lon="35.0022400">
<ele>295.559998</ele>
<time>2021-04-10T21:18:37.425Z</time>
</trkpt>
<trkpt lat="31.8192000" lon="35.0022400">
<ele>295.559998</ele>
<time>2021-04-10T21:18:37.425Z</time>
</trkpt>
<trkpt lat="31.8191900" lon="35.0023900">
<ele>297.109985</ele>
<time>2021-04-10T21:18:37.425Z</time>
</trkpt>
<trkpt lat="31.8191800" lon="35.0024000">
<ele>297.089996</ele>
<time>2021-04-10T21:18:37.425Z</time>
</trkpt>
<trkpt lat="31.8191800" lon="35.0024200">
<ele>297.309998</ele>
<time>2021-04-10T21:18:37.425Z</time>
</trkpt>
<trkpt lat="31.8191800" lon="35.0024300">
<ele>297.420013</ele>
<time>2021-04-10T21:18:37.425Z</time>
</trkpt>
<trkpt lat="31.8191800" lon="35.0024400">
<ele>297.529999</ele>
<time>2021-04-10T21:18:37.425Z</time>
</trkpt>
<trkpt lat="31.8191800" lon="35.0024500">
<ele>297.640015</ele>
<time>2021-04-10T21:18:37.425Z</time>
</trkpt>
<trkpt lat="31.8191500" lon="35.0026500">
<ele>299.380005</ele>
<time>2021-04-10T21:18:37.425Z</time>
</trkpt>
<trkpt lat="31.8191400" lon="35.0027300">
<ele>300.100006</ele>
<time>2021-04-10T21:18:37.425Z</time>
</trkpt>
<trkpt lat="31.8191400" lon="35.0027500">
<ele>300.320007</ele>
<time>2021-04-10T21:18:37.425Z</time>
</trkpt>
<trkpt lat="31.8191300" lon="35.0027800">
<ele>300.500000</ele>
<time>2021-04-10T21:18:37.425Z</time>
</trkpt>
<trkpt lat="31.8191300" lon="35.0027900">
<ele>300.630005</ele>
<time>2021-04-10T21:18:37.425Z</time>
</trkpt>
<trkpt lat="31.8191200" lon="35.0028000">
<ele>300.610016</ele>
<time>2021-04-10T21:18:37.426Z</time>
</trkpt>
<trkpt lat="31.8191000" lon="35.0029800">
<ele>302.429993</ele>
<time>2021-04-10T21:18:37.426Z</time>
</trkpt>
<trkpt lat="31.8190700" lon="35.0031900">
<ele>304.820007</ele>
<time>2021-04-10T21:18:37.426Z</time>
</trkpt>
<trkpt lat="31.8190400" lon="35.0034300">
<ele>307.550018</ele>
<time>2021-04-10T21:18:37.426Z</time>
</trkpt>
<trkpt lat="31.8190300" lon="35.0035200">
<ele>308.410004</ele>
<time>2021-04-10T21:18:37.426Z</time>
</trkpt>
<trkpt lat="31.8190300" lon="35.0035300">
<ele>308.540009</ele>
<time>2021-04-10T21:18:37.426Z</time>
</trkpt>
<trkpt lat="31.8190200" lon="35.0035500">
<ele>308.529999</ele>
<time>2021-04-10T21:18:37.426Z</time>
</trkpt>
<trkpt lat="31.8190200" lon="35.0035700">
<ele>308.779999</ele>
<time>2021-04-10T21:18:37.426Z</time>
</trkpt>
<trkpt lat="31.8190200" lon="35.0035800">
<ele>308.910004</ele>
<time>2021-04-10T21:18:37.426Z</time>
</trkpt>
<trkpt lat="31.8189900" lon="35.0037200">
<ele>309.970001</ele>
<time>2021-04-10T21:18:37.426Z</time>
</trkpt>
<trkpt lat="31.8189900" lon="35.0037400">
<ele>310.239990</ele>
<time>2021-04-10T21:18:37.426Z</time>
</trkpt>
<trkpt lat="31.8189900" lon="35.0037600">
<ele>310.500000</ele>
<time>2021-04-10T21:18:37.426Z</time>
</trkpt>
<trkpt lat="31.8189900" lon="35.0037700">
<ele>310.630005</ele>
<time>2021-04-10T21:18:37.426Z</time>
</trkpt>
<trkpt lat="31.8189900" lon="35.0037900">
<ele>310.889984</ele>
<time>2021-04-10T21:18:37.426Z</time>
</trkpt>
<trkpt lat="31.8189800" lon="35.0038000">
<ele>310.790009</ele>
<time>2021-04-10T21:18:37.426Z</time>
</trkpt>
<trkpt lat="31.8189800" lon="35.0038100">
<ele>310.929993</ele>
<time>2021-04-10T21:18:37.426Z</time>
</trkpt>
<trkpt lat="31.8189800" lon="35.0038300">
<ele>311.190002</ele>
<time>2021-04-10T21:18:37.426Z</time>
</trkpt>
<trkpt lat="31.8189400" lon="35.0040500">
<ele>312.160004</ele>
<time>2021-04-10T21:18:37.426Z</time>
</trkpt>
<trkpt lat="31.8188900" lon="35.0043000">
<ele>313.930023</ele>
<time>2021-04-10T21:18:37.426Z</time>
</trkpt>
<trkpt lat="31.8188600" lon="35.0044800">
<ele>316.500000</ele>
<time>2021-04-10T21:18:37.426Z</time>
</trkpt>
<trkpt lat="31.8188300" lon="35.0047500">
<ele>323.520020</ele>
<time>2021-04-10T21:18:37.426Z</time>
</trkpt>
<trkpt lat="31.8188000" lon="35.0050000">
<ele>328.079987</ele>
<time>2021-04-10T21:18:37.426Z</time>
</trkpt>
<trkpt lat="31.8188000" lon="35.0050200">
<ele>328.369995</ele>
<time>2021-04-10T21:18:37.426Z</time>
</trkpt>
<trkpt lat="31.8187900" lon="35.0051300">
<ele>329.770020</ele>
<time>2021-04-10T21:18:37.426Z</time>
</trkpt>
<trkpt lat="31.8187800" lon="35.0052600">
<ele>331.559998</ele>
<time>2021-04-10T21:18:37.426Z</time>
</trkpt>
<trkpt lat="31.8187800" lon="35.0055100">
<ele>331.970001</ele>
<time>2021-04-10T21:18:37.426Z</time>
</trkpt>
<trkpt lat="31.8187800" lon="35.0055600">
<ele>331.980011</ele>
<time>2021-04-10T21:18:37.427Z</time>
</trkpt>
<trkpt lat="31.8187700" lon="35.0055900">
<ele>331.820007</ele>
<time>2021-04-10T21:18:37.427Z</time>
</trkpt>
<trkpt lat="31.8187700" lon="35.0056100">
<ele>331.720001</ele>
<time>2021-04-10T21:18:37.427Z</time>
</trkpt>
<trkpt lat="31.8187900" lon="35.0056300">
<ele>331.639984</ele>
<time>2021-04-10T21:18:37.427Z</time>
</trkpt>
<trkpt lat="31.8187900" lon="35.0056500">
<ele>331.539978</ele>
<time>2021-04-10T21:18:37.427Z</time>
</trkpt>
<trkpt lat="31.8187900" lon="35.0057300">
<ele>331.149994</ele>
<time>2021-04-10T21:18:37.427Z</time>
</trkpt>
<trkpt lat="31.8187900" lon="35.0057500">
<ele>331.050018</ele>
<time>2021-04-10T21:18:37.427Z</time>
</trkpt>
<trkpt lat="31.8187900" lon="35.0057600">
<ele>331.000000</ele>
<time>2021-04-10T21:18:37.427Z</time>
</trkpt>
<trkpt lat="31.8187900" lon="35.0057700">
<ele>330.949982</ele>
<time>2021-04-10T21:18:37.427Z</time>
</trkpt>
<trkpt lat="31.8187800" lon="35.0057900">
<ele>330.830017</ele>
<time>2021-04-10T21:18:37.427Z</time>
</trkpt>
<trkpt lat="31.8187700" lon="35.0058000">
<ele>330.739990</ele>
<time>2021-04-10T21:18:37.427Z</time>
</trkpt>
<trkpt lat="31.8187700" lon="35.0058100">
<ele>330.690002</ele>
<time>2021-04-10T21:18:37.427Z</time>
</trkpt>
<trkpt lat="31.8187600" lon="35.0058600">
<ele>330.639984</ele>
<time>2021-04-10T21:18:37.427Z</time>
</trkpt>
<trkpt lat="31.8187500" lon="35.0058700">
<ele>330.630005</ele>
<time>2021-04-10T21:18:37.427Z</time>
</trkpt>
<trkpt lat="31.8187400" lon="35.0059200">
<ele>330.750000</ele>
<time>2021-04-10T21:18:37.427Z</time>
</trkpt>
<trkpt lat="31.8186600" lon="35.0060100">
<ele>330.399994</ele>
<time>2021-04-10T21:18:37.427Z</time>
</trkpt>
<trkpt lat="31.8183700" lon="35.0063600">
<ele>327.220001</ele>
<time>2021-04-10T21:18:37.427Z</time>
</trkpt>
<trkpt lat="31.8180600" lon="35.0066600">
<ele>326.040009</ele>
<time>2021-04-10T21:18:37.427Z</time>
</trkpt>
<trkpt lat="31.8177500" lon="35.0070200">
<ele>324.829987</ele>
<time>2021-04-10T21:18:37.427Z</time>
</trkpt>
<trkpt lat="31.8174600" lon="35.0074200">
<ele>325.150024</ele>
<time>2021-04-10T21:18:37.427Z</time>
</trkpt>
<trkpt lat="31.8172200" lon="35.0078400">
<ele>323.410004</ele>
<time>2021-04-10T21:18:37.427Z</time>
</trkpt>
<trkpt lat="31.8170000" lon="35.0082600">
<ele>324.739990</ele>
<time>2021-04-10T21:18:37.427Z</time>
</trkpt>
<trkpt lat="31.8169800" lon="35.0083100">
<ele>325.179993</ele>
<time>2021-04-10T21:18:37.427Z</time>
</trkpt>
<trkpt lat="31.8169200" lon="35.0084700">
<ele>326.750000</ele>
<time>2021-04-10T21:18:37.427Z</time>
</trkpt>
<trkpt lat="31.8169000" lon="35.0085200">
<ele>327.210022</ele>
<time>2021-04-10T21:18:37.427Z</time>
</trkpt>
<trkpt lat="31.8168800" lon="35.0085700">
<ele>327.580017</ele>
<time>2021-04-10T21:18:37.427Z</time>
</trkpt>
<trkpt lat="31.8168400" lon="35.0086700">
<ele>328.179993</ele>
<time>2021-04-10T21:18:37.428Z</time>
</trkpt>
<trkpt lat="31.8167900" lon="35.0088200">
<ele>328.950012</ele>
<time>2021-04-10T21:18:37.428Z</time>
</trkpt>
<trkpt lat="31.8167800" lon="35.0088700">
<ele>329.260010</ele>
<time>2021-04-10T21:18:37.428Z</time>
</trkpt>
<trkpt lat="31.8167700" lon="35.0089200">
<ele>329.410004</ele>
<time>2021-04-10T21:18:37.428Z</time>
</trkpt>
<trkpt lat="31.8167200" lon="35.0094000">
<ele>332.320007</ele>
<time>2021-04-10T21:18:37.428Z</time>
</trkpt>
<trkpt lat="31.8167400" lon="35.0097000">
<ele>334.700012</ele>
<time>2021-04-10T21:18:37.428Z</time>
</trkpt>
<trkpt lat="31.8167500" lon="35.0100200">
<ele>337.669983</ele>
<time>2021-04-10T21:18:37.428Z</time>
</trkpt>
<trkpt lat="31.8167700" lon="35.0102800">
<ele>341.619995</ele>
<time>2021-04-10T21:18:37.428Z</time>
</trkpt>
<trkpt lat="31.8167900" lon="35.0105700">
<ele>344.179993</ele>
<time>2021-04-10T21:18:37.428Z</time>
</trkpt>
<trkpt lat="31.8167200" lon="35.0108500">
<ele>343.600006</ele>
<time>2021-04-10T21:18:37.428Z</time>
</trkpt>
<trkpt lat="31.8167000" lon="35.0109800">
<ele>343.489990</ele>
<time>2021-04-10T21:18:37.428Z</time>
</trkpt>
<trkpt lat="31.8166900" lon="35.0110000">
<ele>343.269989</ele>
<time>2021-04-10T21:18:37.428Z</time>
</trkpt>
<trkpt lat="31.8166300" lon="35.0112800">
<ele>343.579987</ele>
<time>2021-04-10T21:18:37.428Z</time>
</trkpt>
<trkpt lat="31.8166200" lon="35.0113300">
<ele>343.690002</ele>
<time>2021-04-10T21:18:37.428Z</time>
</trkpt>
<trkpt lat="31.8166000" lon="35.0113500">
<ele>343.690002</ele>
<time>2021-04-10T21:18:37.428Z</time>
</trkpt>
<trkpt lat="31.8165900" lon="35.0113700">
<ele>343.690002</ele>
<time>2021-04-10T21:18:37.428Z</time>
</trkpt>
<trkpt lat="31.8163400" lon="35.0117000">
<ele>342.020020</ele>
<time>2021-04-10T21:18:37.428Z</time>
</trkpt>
<trkpt lat="31.8162200" lon="35.0118900">
<ele>342.020020</ele>
<time>2021-04-10T21:18:37.428Z</time>
</trkpt>
<trkpt lat="31.8162300" lon="35.0119100">
<ele>342.179993</ele>
<time>2021-04-10T21:18:37.428Z</time>
</trkpt>
<trkpt lat="31.8162200" lon="35.0119300">
<ele>342.140015</ele>
<time>2021-04-10T21:18:37.428Z</time>
</trkpt>
<trkpt lat="31.8162200" lon="35.0119400">
<ele>342.160004</ele>
<time>2021-04-10T21:18:37.428Z</time>
</trkpt>
<trkpt lat="31.8162200" lon="35.0119600">
<ele>342.309998</ele>
<time>2021-04-10T21:18:37.428Z</time>
</trkpt>
<trkpt lat="31.8161800" lon="35.0122300">
<ele>344.020020</ele>
<time>2021-04-10T21:18:37.428Z</time>
</trkpt>
<trkpt lat="31.8161500" lon="35.0125300">
<ele>344.500000</ele>
<time>2021-04-10T21:18:37.428Z</time>
</trkpt>
<trkpt lat="31.8160900" lon="35.0129000">
<ele>343.779968</ele>
<time>2021-04-10T21:18:37.428Z</time>
</trkpt>
<trkpt lat="31.8159900" lon="35.0132100">
<ele>344.429993</ele>
<time>2021-04-10T21:18:37.428Z</time>
</trkpt>
<trkpt lat="31.8158100" lon="35.0135000">
<ele>347.119995</ele>
<time>2021-04-10T21:18:37.429Z</time>
</trkpt>
<trkpt lat="31.8157500" lon="35.0136000">
<ele>348.730011</ele>
<time>2021-04-10T21:18:37.429Z</time>
</trkpt>
<trkpt lat="31.8157300" lon="35.0138800">
<ele>342.929993</ele>
<time>2021-04-10T21:18:37.429Z</time>
</trkpt>
<trkpt lat="31.8157200" lon="35.0140300">
<ele>340.430023</ele>
<time>2021-04-10T21:18:37.429Z</time>
</trkpt>
<trkpt lat="31.8155400" lon="35.0144600">
<ele>338.720001</ele>
<time>2021-04-10T21:18:37.429Z</time>
</trkpt>
<trkpt lat="31.8153800" lon="35.0148200">
<ele>342.989990</ele>
<time>2021-04-10T21:18:37.429Z</time>
</trkpt>
<trkpt lat="31.8152600" lon="35.0153600">
<ele>343.220032</ele>
<time>2021-04-10T21:18:37.429Z</time>
</trkpt>
<trkpt lat="31.8151600" lon="35.0159000">
<ele>350.010010</ele>
<time>2021-04-10T21:18:37.429Z</time>
</trkpt>
<trkpt lat="31.8151100" lon="35.0165600">
<ele>350.549988</ele>
<time>2021-04-10T21:18:37.429Z</time>
</trkpt>
<trkpt lat="31.8150700" lon="35.0171600">
<ele>349.959991</ele>
<time>2021-04-10T21:18:37.429Z</time>
</trkpt>
<trkpt lat="31.8150700" lon="35.0172100">
<ele>350.190002</ele>
<time>2021-04-10T21:18:37.429Z</time>
</trkpt>
<trkpt lat="31.8150800" lon="35.0172500">
<ele>350.190002</ele>
<time>2021-04-10T21:18:37.429Z</time>
</trkpt>
<trkpt lat="31.8151000" lon="35.0173000">
<ele>350.119995</ele>
<time>2021-04-10T21:18:37.429Z</time>
</trkpt>
<trkpt lat="31.8151200" lon="35.0173400">
<ele>350.070007</ele>
<time>2021-04-10T21:18:37.429Z</time>
</trkpt>
<trkpt lat="31.8151400" lon="35.0173900">
<ele>350.100006</ele>
<time>2021-04-10T21:18:37.429Z</time>
</trkpt>
<trkpt lat="31.8155200" lon="35.0181200">
<ele>339.480011</ele>
<time>2021-04-10T21:18:37.429Z</time>
</trkpt>
<trkpt lat="31.8154700" lon="35.0184100">
<ele>337.669983</ele>
<time>2021-04-10T21:18:37.429Z</time>
</trkpt>
<trkpt lat="31.8153700" lon="35.0184800">
<ele>337.180023</ele>
<time>2021-04-10T21:18:37.429Z</time>
</trkpt>
<trkpt lat="31.8150000" lon="35.0185400">
<ele>338.739990</ele>
<time>2021-04-10T21:18:37.429Z</time>
</trkpt>
<trkpt lat="31.8145300" lon="35.0187700">
<ele>341.970001</ele>
<time>2021-04-10T21:18:37.429Z</time>
</trkpt>
<trkpt lat="31.8141400" lon="35.0188400">
<ele>339.329987</ele>
<time>2021-04-10T21:18:37.429Z</time>
</trkpt>
<trkpt lat="31.8136700" lon="35.0188400">
<ele>333.209991</ele>
<time>2021-04-10T21:18:37.429Z</time>
</trkpt>
<trkpt lat="31.8134300" lon="35.0188600">
<ele>332.760010</ele>
<time>2021-04-10T21:18:37.429Z</time>
</trkpt>
<trkpt lat="31.8133500" lon="35.0188700">
<ele>332.330017</ele>
<time>2021-04-10T21:18:37.429Z</time>
</trkpt>
<trkpt lat="31.8131400" lon="35.0189000">
<ele>332.569977</ele>
<time>2021-04-10T21:18:37.429Z</time>
</trkpt>
<trkpt lat="31.8130100" lon="35.0189000">
<ele>332.529999</ele>
<time>2021-04-10T21:18:37.429Z</time>
</trkpt>
<trkpt lat="31.8128200" lon="35.0188800">
<ele>331.309998</ele>
<time>2021-04-10T21:18:37.430Z</time>
</trkpt>
<trkpt lat="31.8125100" lon="35.0186800">
<ele>324.729980</ele>
<time>2021-04-10T21:18:37.430Z</time>
</trkpt>
<trkpt lat="31.8124700" lon="35.0186500">
<ele>324.139984</ele>
<time>2021-04-10T21:18:37.430Z</time>
</trkpt>
<trkpt lat="31.8123100" lon="35.0184800">
<ele>322.649994</ele>
<time>2021-04-10T21:18:37.430Z</time>
</trkpt>
<trkpt lat="31.8124100" lon="35.0182500">
<ele>323.950012</ele>
<time>2021-04-10T21:18:37.430Z</time>
</trkpt>
<trkpt lat="31.8123800" lon="35.0180200">
<ele>323.270020</ele>
<time>2021-04-10T21:18:37.430Z</time>
</trkpt>
<trkpt lat="31.8123800" lon="35.0178000">
<ele>323.270020</ele>
<time>2021-04-10T21:18:37.430Z</time>
</trkpt>
<trkpt lat="31.8123900" lon="35.0174000">
<ele>322.230011</ele>
<time>2021-04-10T21:18:37.430Z</time>
</trkpt>
<trkpt lat="31.8125500" lon="35.0171000">
<ele>323.239990</ele>
<time>2021-04-10T21:18:37.430Z</time>
</trkpt>
<trkpt lat="31.8126600" lon="35.0168200">
<ele>326.679993</ele>
<time>2021-04-10T21:18:37.430Z</time>
</trkpt>
<trkpt lat="31.8127600" lon="35.0166400">
<ele>330.169983</ele>
<time>2021-04-10T21:18:37.430Z</time>
</trkpt>
<trkpt lat="31.8128200" lon="35.0163600">
<ele>329.510010</ele>
<time>2021-04-10T21:18:37.430Z</time>
</trkpt>
<trkpt lat="31.8129300" lon="35.0161700">
<ele>329.569977</ele>
<time>2021-04-10T21:18:37.430Z</time>
</trkpt>
<trkpt lat="31.8132400" lon="35.0157400">
<ele>329.540009</ele>
<time>2021-04-10T21:18:37.430Z</time>
</trkpt>
<trkpt lat="31.8134900" lon="35.0154100">
<ele>328.169983</ele>
<time>2021-04-10T21:18:37.430Z</time>
</trkpt>
<trkpt lat="31.8135300" lon="35.0152800">
<ele>325.730011</ele>
<time>2021-04-10T21:18:37.430Z</time>
</trkpt>
<trkpt lat="31.8135500" lon="35.0152300">
<ele>325.419983</ele>
<time>2021-04-10T21:18:37.430Z</time>
</trkpt>
<trkpt lat="31.8135700" lon="35.0151900">
<ele>325.280029</ele>
<time>2021-04-10T21:18:37.430Z</time>
</trkpt>
<trkpt lat="31.8136000" lon="35.0151400">
<ele>325.220001</ele>
<time>2021-04-10T21:18:37.430Z</time>
</trkpt>
<trkpt lat="31.8136700" lon="35.0150400">
<ele>325.270020</ele>
<time>2021-04-10T21:18:37.430Z</time>
</trkpt>
<trkpt lat="31.8137100" lon="35.0149900">
<ele>325.350006</ele>
<time>2021-04-10T21:18:37.430Z</time>
</trkpt>
<trkpt lat="31.8139100" lon="35.0147600">
<ele>327.660004</ele>
<time>2021-04-10T21:18:37.430Z</time>
</trkpt>
<trkpt lat="31.8139400" lon="35.0147000">
<ele>328.510010</ele>
<time>2021-04-10T21:18:37.430Z</time>
</trkpt>
<trkpt lat="31.8139600" lon="35.0146500">
<ele>328.989990</ele>
<time>2021-04-10T21:18:37.430Z</time>
</trkpt>
<trkpt lat="31.8140500" lon="35.0143400">
<ele>329.709991</ele>
<time>2021-04-10T21:18:37.430Z</time>
</trkpt>
<trkpt lat="31.8140500" lon="35.0142700">
<ele>328.769989</ele>
<time>2021-04-10T21:18:37.431Z</time>
</trkpt>
<trkpt lat="31.8140600" lon="35.0142000">
<ele>328.239990</ele>
<time>2021-04-10T21:18:37.431Z</time>
</trkpt>
<trkpt lat="31.8140600" lon="35.0141300">
<ele>327.320007</ele>
<time>2021-04-10T21:18:37.431Z</time>
</trkpt>
<trkpt lat="31.8140500" lon="35.0140500">
<ele>325.989990</ele>
<time>2021-04-10T21:18:37.431Z</time>
</trkpt>
<trkpt lat="31.8140400" lon="35.0139700">
<ele>324.739990</ele>
<time>2021-04-10T21:18:37.431Z</time>
</trkpt>
<trkpt lat="31.8140200" lon="35.0138900">
<ele>323.319977</ele>
<time>2021-04-10T21:18:37.431Z</time>
</trkpt>
<trkpt lat="31.8139900" lon="35.0138000">
<ele>323.069977</ele>
<time>2021-04-10T21:18:37.431Z</time>
</trkpt>
<trkpt lat="31.8139700" lon="35.0137200">
<ele>323.079987</ele>
<time>2021-04-10T21:18:37.431Z</time>
</trkpt>
<trkpt lat="31.8139600" lon="35.0136400">
<ele>323.350006</ele>
<time>2021-04-10T21:18:37.431Z</time>
</trkpt>
<trkpt lat="31.8139500" lon="35.0135700">
<ele>323.440002</ele>
<time>2021-04-10T21:18:37.431Z</time>
</trkpt>
<trkpt lat="31.8139700" lon="35.0135200">
<ele>323.980011</ele>
<time>2021-04-10T21:18:37.431Z</time>
</trkpt>
<trkpt lat="31.8140000" lon="35.0134800">
<ele>324.680023</ele>
<time>2021-04-10T21:18:37.431Z</time>
</trkpt>
<trkpt lat="31.8140300" lon="35.0134400">
<ele>325.350006</ele>
<time>2021-04-10T21:18:37.431Z</time>
</trkpt>
<trkpt lat="31.8140500" lon="35.0134200">
<ele>325.769989</ele>
<time>2021-04-10T21:18:37.431Z</time>
</trkpt>
<trkpt lat="31.8140800" lon="35.0133900">
<ele>326.380005</ele>
<time>2021-04-10T21:18:37.431Z</time>
</trkpt>
<trkpt lat="31.8141000" lon="35.0133700">
<ele>326.770020</ele>
<time>2021-04-10T21:18:37.431Z</time>
</trkpt>
<trkpt lat="31.8141000" lon="35.0133700">
<ele>326.770020</ele>
<time>2021-04-10T21:18:37.431Z</time>
</trkpt>
<trkpt lat="31.8141100" lon="35.0133800">
<ele>326.950012</ele>
<time>2021-04-10T21:18:37.431Z</time>
</trkpt>
<trkpt lat="31.8142300" lon="35.0132100">
<ele>328.380005</ele>
<time>2021-04-10T21:18:37.431Z</time>
</trkpt>
<trkpt lat="31.8144200" lon="35.0130100">
<ele>330.220001</ele>
<time>2021-04-10T21:18:37.431Z</time>
</trkpt>
<trkpt lat="31.8144600" lon="35.0123100">
<ele>333.309998</ele>
<time>2021-04-10T21:18:37.431Z</time>
</trkpt>
<trkpt lat="31.8145100" lon="35.0116100">
<ele>341.720001</ele>
<time>2021-04-10T21:18:37.431Z</time>
</trkpt>
<trkpt lat="31.8145500" lon="35.0109100">
<ele>343.900024</ele>
<time>2021-04-10T21:18:37.431Z</time>
</trkpt>
<trkpt lat="31.8147300" lon="35.0100600">
<ele>338.940033</ele>
<time>2021-04-10T21:18:37.431Z</time>
</trkpt>
<trkpt lat="31.8147800" lon="35.0094200">
<ele>337.780029</ele>
<time>2021-04-10T21:18:37.431Z</time>
</trkpt>
<trkpt lat="31.8148300" lon="35.0087800">
<ele>335.559998</ele>
<time>2021-04-10T21:18:37.431Z</time>
</trkpt>
<trkpt lat="31.8147500" lon="35.0082400">
<ele>332.330017</ele>
<time>2021-04-10T21:18:37.431Z</time>
</trkpt>
<trkpt lat="31.8146600" lon="35.0077100">
<ele>326.359985</ele>
<time>2021-04-10T21:18:37.432Z</time>
</trkpt>
<trkpt lat="31.8145800" lon="35.0071700">
<ele>320.640015</ele>
<time>2021-04-10T21:18:37.432Z</time>
</trkpt>
<trkpt lat="31.8144900" lon="35.0066300">
<ele>309.570007</ele>
<time>2021-04-10T21:18:37.432Z</time>
</trkpt>
<trkpt lat="31.8144000" lon="35.0057500">
<ele>291.450012</ele>
<time>2021-04-10T21:18:37.432Z</time>
</trkpt>
<trkpt lat="31.8145200" lon="35.0054600">
<ele>287.510010</ele>
<time>2021-04-10T21:18:37.432Z</time>
</trkpt>
<trkpt lat="31.8147900" lon="35.0053100">
<ele>291.230011</ele>
<time>2021-04-10T21:18:37.432Z</time>
</trkpt>
<trkpt lat="31.8151300" lon="35.0050400">
<ele>295.910004</ele>
<time>2021-04-10T21:18:37.432Z</time>
</trkpt>
<trkpt lat="31.8151800" lon="35.0048600">
<ele>297.250000</ele>
<time>2021-04-10T21:18:37.432Z</time>
</trkpt>
<trkpt lat="31.8151600" lon="35.0046400">
<ele>298.600006</ele>
<time>2021-04-10T21:18:37.432Z</time>
</trkpt>
<trkpt lat="31.8153200" lon="35.0042600">
<ele>302.149994</ele>
<time>2021-04-10T21:18:37.432Z</time>
</trkpt>
<trkpt lat="31.8155600" lon="35.0037900">
<ele>298.300018</ele>
<time>2021-04-10T21:18:37.432Z</time>
</trkpt>
<trkpt lat="31.8158000" lon="35.0033300">
<ele>294.350006</ele>
<time>2021-04-10T21:18:37.432Z</time>
</trkpt>
<trkpt lat="31.8160100" lon="35.0028000">
<ele>290.429993</ele>
<time>2021-04-10T21:18:37.432Z</time>
</trkpt>
<trkpt lat="31.8159600" lon="35.0027400">
<ele>289.910004</ele>
<time>2021-04-10T21:18:37.432Z</time>
</trkpt>
<trkpt lat="31.8159600" lon="35.0027400">
<ele>289.910004</ele>
<time>2021-04-10T21:18:37.432Z</time>
</trkpt>
<trkpt lat="31.8158600" lon="35.0026400">
<ele>289.190002</ele>
<time>2021-04-10T21:18:37.432Z</time>
</trkpt>
<trkpt lat="31.8153800" lon="35.0027600">
<ele>277.889984</ele>
<time>2021-04-10T21:18:37.432Z</time>
</trkpt>
<trkpt lat="31.8149600" lon="35.0030800">
<ele>277.809998</ele>
<time>2021-04-10T21:18:37.432Z</time>
</trkpt>
<trkpt lat="31.8148200" lon="35.0032300">
<ele>278.529999</ele>
<time>2021-04-10T21:18:37.432Z</time>
</trkpt>
<trkpt lat="31.8147600" lon="35.0036900">
<ele>284.230011</ele>
<time>2021-04-10T21:18:37.432Z</time>
</trkpt>
<trkpt lat="31.8147000" lon="35.0040400">
<ele>285.720001</ele>
<time>2021-04-10T21:18:37.432Z</time>
</trkpt>
<trkpt lat="31.8146500" lon="35.0041800">
<ele>285.760010</ele>
<time>2021-04-10T21:18:37.432Z</time>
</trkpt>
<trkpt lat="31.8145000" lon="35.0042400">
<ele>283.480011</ele>
<time>2021-04-10T21:18:37.432Z</time>
</trkpt>
<trkpt lat="31.8142000" lon="35.0041300">
<ele>281.980011</ele>
<time>2021-04-10T21:18:37.432Z</time>
</trkpt>
<trkpt lat="31.8138300" lon="35.0040500">
<ele>280.100006</ele>
<time>2021-04-10T21:18:37.432Z</time>
</trkpt>
<trkpt lat="31.8133900" lon="35.0041300">
<ele>269.929993</ele>
<time>2021-04-10T21:18:37.433Z</time>
</trkpt>
<trkpt lat="31.8131900" lon="35.0042300">
<ele>265.940002</ele>
<time>2021-04-10T21:18:37.433Z</time>
</trkpt>
<trkpt lat="31.8129700" lon="35.0045400">
<ele>264.019989</ele>
<time>2021-04-10T21:18:37.433Z</time>
</trkpt>
<trkpt lat="31.8128600" lon="35.0047200">
<ele>263.869995</ele>
<time>2021-04-10T21:18:37.433Z</time>
</trkpt>
<trkpt lat="31.8127400" lon="35.0051200">
<ele>264.179993</ele>
<time>2021-04-10T21:18:37.433Z</time>
</trkpt>
<trkpt lat="31.8127300" lon="35.0051500">
<ele>263.970001</ele>
<time>2021-04-10T21:18:37.433Z</time>
</trkpt>
<trkpt lat="31.8127400" lon="35.0051500">
<ele>264.179993</ele>
<time>2021-04-10T21:18:37.433Z</time>
</trkpt>
<trkpt lat="31.8127400" lon="35.0051500">
<ele>264.179993</ele>
<time>2021-04-10T21:18:37.433Z</time>
</trkpt>
<trkpt lat="31.8127300" lon="35.0051500">
<ele>263.970001</ele>
<time>2021-04-10T21:18:37.433Z</time>
</trkpt>
<trkpt lat="31.8124800" lon="35.0056700">
<ele>258.179993</ele>
<time>2021-04-10T21:18:37.433Z</time>
</trkpt>
<trkpt lat="31.8124900" lon="35.0051300">
<ele>258.890015</ele>
<time>2021-04-10T21:18:37.433Z</time>
</trkpt>
<trkpt lat="31.8121200" lon="35.0053400">
<ele>255.550003</ele>
<time>2021-04-10T21:18:37.433Z</time>
</trkpt>
<trkpt lat="31.8120700" lon="35.0053700">
<ele>255.340012</ele>
<time>2021-04-10T21:18:37.433Z</time>
</trkpt>
<trkpt lat="31.8120000" lon="35.0053800">
<ele>255.259995</ele>
<time>2021-04-10T21:18:37.433Z</time>
</trkpt>
<trkpt lat="31.8119300" lon="35.0054200">
<ele>255.210007</ele>
<time>2021-04-10T21:18:37.433Z</time>
</trkpt>
<trkpt lat="31.8117900" lon="35.0054100">
<ele>257.540009</ele>
<time>2021-04-10T21:18:37.433Z</time>
</trkpt>
<trkpt lat="31.8116900" lon="35.0052900">
<ele>259.619995</ele>
<time>2021-04-10T21:18:37.433Z</time>
</trkpt>
<trkpt lat="31.8116200" lon="35.0051000">
<ele>260.089996</ele>
<time>2021-04-10T21:18:37.433Z</time>
</trkpt>
<trkpt lat="31.8115500" lon="35.0044700">
<ele>256.899994</ele>
<time>2021-04-10T21:18:37.433Z</time>
</trkpt>
<trkpt lat="31.8115200" lon="35.0043900">
<ele>256.429993</ele>
<time>2021-04-10T21:18:37.433Z</time>
</trkpt>
<trkpt lat="31.8114600" lon="35.0042500">
<ele>255.699997</ele>
<time>2021-04-10T21:18:37.433Z</time>
</trkpt>
<trkpt lat="31.8114600" lon="35.0042500">
<ele>255.699997</ele>
<time>2021-04-10T21:18:37.433Z</time>
</trkpt>
<trkpt lat="31.8114600" lon="35.0042400">
<ele>255.580002</ele>
<time>2021-04-10T21:18:37.433Z</time>
</trkpt>
<trkpt lat="31.8113800" lon="35.0041500">
<ele>255.859985</ele>
<time>2021-04-10T21:18:37.433Z</time>
</trkpt>
<trkpt lat="31.8112500" lon="35.0040100">
<ele>255.399994</ele>
<time>2021-04-10T21:18:37.433Z</time>
</trkpt>
<trkpt lat="31.8110400" lon="35.0038500">
<ele>253.370010</ele>
<time>2021-04-10T21:18:37.433Z</time>
</trkpt>
<trkpt lat="31.8109400" lon="35.0038000">
<ele>251.210007</ele>
<time>2021-04-10T21:18:37.434Z</time>
</trkpt>
<trkpt lat="31.8107700" lon="35.0037500">
<ele>248.770004</ele>
<time>2021-04-10T21:18:37.434Z</time>
</trkpt>
<trkpt lat="31.8106900" lon="35.0037500">
<ele>248.479996</ele>
<time>2021-04-10T21:18:37.434Z</time>
</trkpt>
<trkpt lat="31.8103800" lon="35.0038500">
<ele>243.740005</ele>
<time>2021-04-10T21:18:37.434Z</time>
</trkpt>
<trkpt lat="31.8101900" lon="35.0039400">
<ele>242.830002</ele>
<time>2021-04-10T21:18:37.434Z</time>
</trkpt>
<trkpt lat="31.8100700" lon="35.0040300">
<ele>245.649994</ele>
<time>2021-04-10T21:18:37.434Z</time>
</trkpt>
<trkpt lat="31.8096500" lon="35.0045600">
<ele>252.739990</ele>
<time>2021-04-10T21:18:37.434Z</time>
</trkpt>
<trkpt lat="31.8095400" lon="35.0047200">
<ele>252.669998</ele>
<time>2021-04-10T21:18:37.434Z</time>
</trkpt>
<trkpt lat="31.8094400" lon="35.0049500">
<ele>255.320007</ele>
<time>2021-04-10T21:18:37.434Z</time>
</trkpt>
<trkpt lat="31.8093900" lon="35.0050600">
<ele>257.079987</ele>
<time>2021-04-10T21:18:37.434Z</time>
</trkpt>
<trkpt lat="31.8093300" lon="35.0051100">
<ele>258.179993</ele>
<time>2021-04-10T21:18:37.434Z</time>
</trkpt>
<trkpt lat="31.8092400" lon="35.0051700">
<ele>259.760010</ele>
<time>2021-04-10T21:18:37.434Z</time>
</trkpt>
<trkpt lat="31.8090600" lon="35.0051600">
<ele>260.410004</ele>
<time>2021-04-10T21:18:37.434Z</time>
</trkpt>
<trkpt lat="31.8088300" lon="35.0050500">
<ele>259.829987</ele>
<time>2021-04-10T21:18:37.434Z</time>
</trkpt>
<trkpt lat="31.8086600" lon="35.0050000">
<ele>258.350006</ele>
<time>2021-04-10T21:18:37.434Z</time>
</trkpt>
<trkpt lat="31.8082600" lon="35.0049900">
<ele>256.709991</ele>
<time>2021-04-10T21:18:37.434Z</time>
</trkpt>
<trkpt lat="31.8081800" lon="35.0049500">
<ele>257.200012</ele>
<time>2021-04-10T21:18:37.434Z</time>
</trkpt>
<trkpt lat="31.8080000" lon="35.0048600">
<ele>258.089996</ele>
<time>2021-04-10T21:18:37.434Z</time>
</trkpt>
<trkpt lat="31.8078400" lon="35.0047500">
<ele>258.010010</ele>
<time>2021-04-10T21:18:37.434Z</time>
</trkpt>
<trkpt lat="31.8076700" lon="35.0047000">
<ele>255.040009</ele>
<time>2021-04-10T21:18:37.434Z</time>
</trkpt>
<trkpt lat="31.8074600" lon="35.0046900">
<ele>250.750000</ele>
<time>2021-04-10T21:18:37.434Z</time>
</trkpt>
<trkpt lat="31.8069100" lon="35.0049900">
<ele>251.960007</ele>
<time>2021-04-10T21:18:37.434Z</time>
</trkpt>
<trkpt lat="31.8068500" lon="35.0049400">
<ele>251.550003</ele>
<time>2021-04-10T21:18:37.434Z</time>
</trkpt>
<trkpt lat="31.8067600" lon="35.0048100">
<ele>251.060013</ele>
<time>2021-04-10T21:18:37.434Z</time>
</trkpt>
<trkpt lat="31.8067000" lon="35.0046500">
<ele>252.669998</ele>
<time>2021-04-10T21:18:37.434Z</time>
</trkpt>
<trkpt lat="31.8066700" lon="35.0045000">
<ele>255.929993</ele>
<time>2021-04-10T21:18:37.434Z</time>
</trkpt>
<trkpt lat="31.8066600" lon="35.0044900">
<ele>256.269989</ele>
<time>2021-04-10T21:18:37.435Z</time>
</trkpt>
<trkpt lat="31.8066600" lon="35.0044900">
<ele>256.269989</ele>
<time>2021-04-10T21:18:37.435Z</time>
</trkpt>
<trkpt lat="31.8066700" lon="35.0045000">
<ele>255.929993</ele>
<time>2021-04-10T21:18:37.435Z</time>
</trkpt>
<trkpt lat="31.8068400" lon="35.0043300">
<ele>255.929993</ele>
<time>2021-04-10T21:18:37.435Z</time>
</trkpt>
<trkpt lat="31.8069100" lon="35.0042200">
<ele>257.809998</ele>
<time>2021-04-10T21:18:37.435Z</time>
</trkpt>
<trkpt lat="31.8069700" lon="35.0041200">
<ele>259.779999</ele>
<time>2021-04-10T21:18:37.435Z</time>
</trkpt>
<trkpt lat="31.8070400" lon="35.0040300">
<ele>260.699982</ele>
<time>2021-04-10T21:18:37.435Z</time>
</trkpt>
<trkpt lat="31.8072200" lon="35.0038800">
<ele>260.179993</ele>
<time>2021-04-10T21:18:37.435Z</time>
</trkpt>
<trkpt lat="31.8073500" lon="35.0037500">
<ele>260.160004</ele>
<time>2021-04-10T21:18:37.435Z</time>
</trkpt>
<trkpt lat="31.8074100" lon="35.0036500">
<ele>260.739990</ele>
<time>2021-04-10T21:18:37.435Z</time>
</trkpt>
<trkpt lat="31.8074800" lon="35.0035400">
<ele>260.639984</ele>
<time>2021-04-10T21:18:37.435Z</time>
</trkpt>
<trkpt lat="31.8075800" lon="35.0032700">
<ele>261.589996</ele>
<time>2021-04-10T21:18:37.435Z</time>
</trkpt>
<trkpt lat="31.8075900" lon="35.0029900">
<ele>265.309998</ele>
<time>2021-04-10T21:18:37.435Z</time>
</trkpt>
<trkpt lat="31.8076500" lon="35.0029100">
<ele>267.419983</ele>
<time>2021-04-10T21:18:37.435Z</time>
</trkpt>
<trkpt lat="31.8082800" lon="35.0027500">
<ele>261.239990</ele>
<time>2021-04-10T21:18:37.435Z</time>
</trkpt>
<trkpt lat="31.8083900" lon="35.0026100">
<ele>263.050018</ele>
<time>2021-04-10T21:18:37.435Z</time>
</trkpt>
<trkpt lat="31.8086700" lon="35.0019600">
<ele>273.459991</ele>
<time>2021-04-10T21:18:37.435Z</time>
</trkpt>
<trkpt lat="31.8089000" lon="35.0017400">
<ele>278.079987</ele>
<time>2021-04-10T21:18:37.435Z</time>
</trkpt>
<trkpt lat="31.8093700" lon="35.0016200">
<ele>275.829987</ele>
<time>2021-04-10T21:18:37.435Z</time>
</trkpt>
<trkpt lat="31.8093700" lon="35.0016200">
<ele>275.829987</ele>
<time>2021-04-10T21:18:37.436Z</time>
</trkpt>
<trkpt lat="31.8094700" lon="35.0015900">
<ele>274.639984</ele>
<time>2021-04-10T21:18:37.436Z</time>
</trkpt>
<trkpt lat="31.8097800" lon="35.0013400">
<ele>272.839996</ele>
<time>2021-04-10T21:18:37.436Z</time>
</trkpt>
<trkpt lat="31.8099800" lon="35.0008900">
<ele>273.329987</ele>
<time>2021-04-10T21:18:37.436Z</time>
</trkpt>
<trkpt lat="31.8103600" lon="34.9998500">
<ele>274.679993</ele>
<time>2021-04-10T21:18:37.436Z</time>
</trkpt>
<trkpt lat="31.8106600" lon="34.9993400">
<ele>273.809998</ele>
<time>2021-04-10T21:18:37.436Z</time>
</trkpt>
<trkpt lat="31.8108100" lon="34.9991800">
<ele>271.610016</ele>
<time>2021-04-10T21:18:37.436Z</time>
</trkpt>
<trkpt lat="31.8109600" lon="34.9990700">
<ele>274.350006</ele>
<time>2021-04-10T21:18:37.436Z</time>
</trkpt>
<trkpt lat="31.8113400" lon="34.9989500">
<ele>276.140015</ele>
<time>2021-04-10T21:18:37.436Z</time>
</trkpt>
<trkpt lat="31.8117900" lon="34.9985100">
<ele>282.690002</ele>
<time>2021-04-10T21:18:37.436Z</time>
</trkpt>
<trkpt lat="31.8118900" lon="34.9984100">
<ele>283.350006</ele>
<time>2021-04-10T21:18:37.436Z</time>
</trkpt>
<trkpt lat="31.8123700" lon="34.9977500">
<ele>282.600006</ele>
<time>2021-04-10T21:18:37.436Z</time>
</trkpt>
<trkpt lat="31.8122300" lon="34.9978000">
<ele>284.000000</ele>
<time>2021-04-10T21:18:37.436Z</time>
</trkpt>
<trkpt lat="31.8121400" lon="34.9978500">
<ele>286.019989</ele>
<time>2021-04-10T21:18:37.436Z</time>
</trkpt>
<trkpt lat="31.8121300" lon="34.9978200">
<ele>286.270020</ele>
<time>2021-04-10T21:18:37.436Z</time>
</trkpt>
<trkpt lat="31.8121300" lon="34.9978200">
<ele>286.270020</ele>
<time>2021-04-10T21:18:37.436Z</time>
</trkpt>
<trkpt lat="31.8120600" lon="34.9978700">
<ele>287.640015</ele>
<time>2021-04-10T21:18:37.436Z</time>
</trkpt>
<trkpt lat="31.8118900" lon="34.9980100">
<ele>289.309998</ele>
<time>2021-04-10T21:18:37.436Z</time>
</trkpt>
<trkpt lat="31.8118700" lon="34.9980300">
<ele>289.369995</ele>
<time>2021-04-10T21:18:37.436Z</time>
</trkpt>
<trkpt lat="31.8116900" lon="34.9981100">
<ele>290.880005</ele>
<time>2021-04-10T21:18:37.436Z</time>
</trkpt>
<trkpt lat="31.8114700" lon="34.9981900">
<ele>292.100006</ele>
<time>2021-04-10T21:18:37.436Z</time>
</trkpt>
<trkpt lat="31.8112600" lon="34.9982900">
<ele>294.880005</ele>
<time>2021-04-10T21:18:37.436Z</time>
</trkpt>
<trkpt lat="31.8110200" lon="34.9983700">
<ele>295.170013</ele>
<time>2021-04-10T21:18:37.436Z</time>
</trkpt>
<trkpt lat="31.8108000" lon="34.9984100">
<ele>297.410004</ele>
<time>2021-04-10T21:18:37.436Z</time>
</trkpt>
<trkpt lat="31.8105500" lon="34.9984800">
<ele>301.929993</ele>
<time>2021-04-10T21:18:37.437Z</time>
</trkpt>
<trkpt lat="31.8102900" lon="34.9985400">
<ele>301.269989</ele>
<time>2021-04-10T21:18:37.437Z</time>
</trkpt>
<trkpt lat="31.8100300" lon="34.9986100">
<ele>305.440002</ele>
<time>2021-04-10T21:18:37.437Z</time>
</trkpt>
<trkpt lat="31.8098300" lon="34.9986900">
<ele>306.809998</ele>
<time>2021-04-10T21:18:37.437Z</time>
</trkpt>
<trkpt lat="31.8096100" lon="34.9987800">
<ele>309.720001</ele>
<time>2021-04-10T21:18:37.437Z</time>
</trkpt>
<trkpt lat="31.8095600" lon="34.9987900">
<ele>310.369995</ele>
<time>2021-04-10T21:18:37.437Z</time>
</trkpt>
<trkpt lat="31.8093700" lon="34.9987100">
<ele>312.959991</ele>
<time>2021-04-10T21:18:37.437Z</time>
</trkpt>
<trkpt lat="31.8091000" lon="34.9986300">
<ele>318.059998</ele>
<time>2021-04-10T21:18:37.437Z</time>
</trkpt>
<trkpt lat="31.8089100" lon="34.9984300">
<ele>321.349976</ele>
<time>2021-04-10T21:18:37.437Z</time>
</trkpt>
<trkpt lat="31.8089400" lon="34.9981300">
<ele>319.800018</ele>
<time>2021-04-10T21:18:37.437Z</time>
</trkpt>
<trkpt lat="31.8089500" lon="34.9980600">
<ele>319.149994</ele>
<time>2021-04-10T21:18:37.437Z</time>
</trkpt>
<trkpt lat="31.8089500" lon="34.9980400">
<ele>319.079987</ele>
<time>2021-04-10T21:18:37.437Z</time>
</trkpt>
<trkpt lat="31.8089600" lon="34.9980200">
<ele>318.880005</ele>
<time>2021-04-10T21:18:37.437Z</time>
</trkpt>
<trkpt lat="31.8089600" lon="34.9980000">
<ele>318.819977</ele>
<time>2021-04-10T21:18:37.437Z</time>
</trkpt>
<trkpt lat="31.8089600" lon="34.9979800">
<ele>318.770020</ele>
<time>2021-04-10T21:18:37.437Z</time>
</trkpt>
<trkpt lat="31.8089600" lon="34.9979600">
<ele>318.709991</ele>
<time>2021-04-10T21:18:37.437Z</time>
</trkpt>
<trkpt lat="31.8090000" lon="34.9976600">
<ele>316.609985</ele>
<time>2021-04-10T21:18:37.437Z</time>
</trkpt>
<trkpt lat="31.8090500" lon="34.9972400">
<ele>313.670013</ele>
<time>2021-04-10T21:18:37.437Z</time>
</trkpt>
<trkpt lat="31.8089700" lon="34.9968600">
<ele>313.769989</ele>
<time>2021-04-10T21:18:37.437Z</time>
</trkpt>
<trkpt lat="31.8086800" lon="34.9967000">
<ele>313.890015</ele>
<time>2021-04-10T21:18:37.437Z</time>
</trkpt>
<trkpt lat="31.8083200" lon="34.9967500">
<ele>314.809998</ele>
<time>2021-04-10T21:18:37.437Z</time>
</trkpt>
<trkpt lat="31.8080400" lon="34.9969100">
<ele>318.680023</ele>
<time>2021-04-10T21:18:37.437Z</time>
</trkpt>
<trkpt lat="31.8077000" lon="34.9971700">
<ele>323.610016</ele>
<time>2021-04-10T21:18:37.437Z</time>
</trkpt>
<trkpt lat="31.8075500" lon="34.9973500">
<ele>324.949982</ele>
<time>2021-04-10T21:18:37.437Z</time>
</trkpt>
<trkpt lat="31.8073900" lon="34.9976500">
<ele>327.389984</ele>
<time>2021-04-10T21:18:37.438Z</time>
</trkpt>
<trkpt lat="31.8073200" lon="34.9980500">
<ele>332.619995</ele>
<time>2021-04-10T21:18:37.438Z</time>
</trkpt>
<trkpt lat="31.8073100" lon="34.9983900">
<ele>335.100006</ele>
<time>2021-04-10T21:18:37.438Z</time>
</trkpt>
<trkpt lat="31.8073200" lon="34.9988000">
<ele>337.300018</ele>
<time>2021-04-10T21:18:37.438Z</time>
</trkpt>
<trkpt lat="31.8072000" lon="34.9990900">
<ele>335.009979</ele>
<time>2021-04-10T21:18:37.438Z</time>
</trkpt>
<trkpt lat="31.8069800" lon="34.9992500">
<ele>333.279999</ele>
<time>2021-04-10T21:18:37.438Z</time>
</trkpt>
<trkpt lat="31.8065900" lon="34.9992700">
<ele>336.029968</ele>
<time>2021-04-10T21:18:37.438Z</time>
</trkpt>
<trkpt lat="31.8061300" lon="34.9990900">
<ele>338.760010</ele>
<time>2021-04-10T21:18:37.438Z</time>
</trkpt>
<trkpt lat="31.8057700" lon="34.9988300">
<ele>339.979980</ele>
<time>2021-04-10T21:18:37.438Z</time>
</trkpt>
<trkpt lat="31.8055700" lon="34.9983200">
<ele>332.550018</ele>
<time>2021-04-10T21:18:37.438Z</time>
</trkpt>
<trkpt lat="31.8053300" lon="34.9980300">
<ele>333.540009</ele>
<time>2021-04-10T21:18:37.438Z</time>
</trkpt>
<trkpt lat="31.8049200" lon="34.9978900">
<ele>333.790009</ele>
<time>2021-04-10T21:18:37.438Z</time>
</trkpt>
<trkpt lat="31.8044500" lon="34.9980100">
<ele>330.429993</ele>
<time>2021-04-10T21:18:37.438Z</time>
</trkpt>
<trkpt lat="31.8041100" lon="34.9982900">
<ele>330.420013</ele>
<time>2021-04-10T21:18:37.438Z</time>
</trkpt>
<trkpt lat="31.8037500" lon="34.9986300">
<ele>330.509979</ele>
<time>2021-04-10T21:18:37.438Z</time>
</trkpt>
<trkpt lat="31.8035600" lon="34.9987700">
<ele>330.059998</ele>
<time>2021-04-10T21:18:37.438Z</time>
</trkpt>
<trkpt lat="31.8035200" lon="34.9987900">
<ele>330.209991</ele>
<time>2021-04-10T21:18:37.438Z</time>
</trkpt>
<trkpt lat="31.8030500" lon="34.9992200">
<ele>336.220001</ele>
<time>2021-04-10T21:18:37.438Z</time>
</trkpt>
<trkpt lat="31.8027500" lon="34.9994700">
<ele>336.159973</ele>
<time>2021-04-10T21:18:37.438Z</time>
</trkpt>
<trkpt lat="31.8025200" lon="34.9993800">
<ele>337.319977</ele>
<time>2021-04-10T21:18:37.438Z</time>
</trkpt>
<trkpt lat="31.8022200" lon="34.9991400">
<ele>337.750000</ele>
<time>2021-04-10T21:18:37.438Z</time>
</trkpt>
<trkpt lat="31.8020400" lon="34.9988700">
<ele>338.819977</ele>
<time>2021-04-10T21:18:37.438Z</time>
</trkpt>
<trkpt lat="31.8017000" lon="34.9986900">
<ele>345.480011</ele>
<time>2021-04-10T21:18:37.438Z</time>
</trkpt>
<trkpt lat="31.8014600" lon="34.9986900">
<ele>347.559998</ele>
<time>2021-04-10T21:18:37.438Z</time>
</trkpt>
<trkpt lat="31.8011600" lon="34.9989800">
<ele>349.359985</ele>
<time>2021-04-10T21:18:37.438Z</time>
</trkpt>
<trkpt lat="31.8009500" lon="34.9992000">
<ele>353.069977</ele>
<time>2021-04-10T21:18:37.438Z</time>
</trkpt>
<trkpt lat="31.8009400" lon="34.9992100">
<ele>353.289978</ele>
<time>2021-04-10T21:18:37.439Z</time>
</trkpt>
<trkpt lat="31.8009300" lon="34.9992300">
<ele>353.629974</ele>
<time>2021-04-10T21:18:37.439Z</time>
</trkpt>
<trkpt lat="31.8008500" lon="34.9994600">
<ele>357.779999</ele>
<time>2021-04-10T21:18:37.439Z</time>
</trkpt>
<trkpt lat="31.8008700" lon="34.9996900">
<ele>359.789978</ele>
<time>2021-04-10T21:18:37.439Z</time>
</trkpt>
<trkpt lat="31.8008400" lon="34.9997900">
<ele>360.760010</ele>
<time>2021-04-10T21:18:37.439Z</time>
</trkpt>
<trkpt lat="31.8008200" lon="34.9998100">
<ele>361.089996</ele>
<time>2021-04-10T21:18:37.439Z</time>
</trkpt>
<trkpt lat="31.8008000" lon="34.9998100">
<ele>361.309998</ele>
<time>2021-04-10T21:18:37.439Z</time>
</trkpt>
<trkpt lat="31.8007900" lon="34.9998200">
<ele>361.519989</ele>
<time>2021-04-10T21:18:37.439Z</time>
</trkpt>
<trkpt lat="31.8007800" lon="34.9998300">
<ele>361.710022</ele>
<time>2021-04-10T21:18:37.439Z</time>
</trkpt>
<trkpt lat="31.8007700" lon="34.9998300">
<ele>361.809998</ele>
<time>2021-04-10T21:18:37.439Z</time>
</trkpt>
<trkpt lat="31.8007500" lon="34.9998400">
<ele>362.089996</ele>
<time>2021-04-10T21:18:37.439Z</time>
</trkpt>
<trkpt lat="31.8006300" lon="34.9998500">
<ele>363.299988</ele>
<time>2021-04-10T21:18:37.439Z</time>
</trkpt>
<trkpt lat="31.8004000" lon="34.9998700">
<ele>365.980011</ele>
<time>2021-04-10T21:18:37.439Z</time>
</trkpt>
<trkpt lat="31.8001400" lon="34.9998500">
<ele>367.150024</ele>
<time>2021-04-10T21:18:37.439Z</time>
</trkpt>
<trkpt lat="31.7999300" lon="34.9997900">
<ele>365.220001</ele>
<time>2021-04-10T21:18:37.439Z</time>
</trkpt>
<trkpt lat="31.7997100" lon="34.9998500">
<ele>363.699982</ele>
<time>2021-04-10T21:18:37.439Z</time>
</trkpt>
<trkpt lat="31.7996700" lon="34.9998900">
<ele>363.890015</ele>
<time>2021-04-10T21:18:37.439Z</time>
</trkpt>
<trkpt lat="31.7996600" lon="34.9999000">
<ele>363.949982</ele>
<time>2021-04-10T21:18:37.439Z</time>
</trkpt>
<trkpt lat="31.7996600" lon="34.9999200">
<ele>364.270020</ele>
<time>2021-04-10T21:18:37.439Z</time>
</trkpt>
<trkpt lat="31.7996700" lon="34.9999400">
<ele>364.679993</ele>
<time>2021-04-10T21:18:37.439Z</time>
</trkpt>
<trkpt lat="31.7996700" lon="34.9999600">
<ele>364.989990</ele>
<time>2021-04-10T21:18:37.439Z</time>
</trkpt>
<trkpt lat="31.7998100" lon="35.0001200">
<ele>367.380005</ele>
<time>2021-04-10T21:18:37.439Z</time>
</trkpt>
<trkpt lat="31.7999000" lon="35.0002100">
<ele>368.679993</ele>
<time>2021-04-10T21:18:37.439Z</time>
</trkpt>
<trkpt lat="31.7999800" lon="35.0004400">
<ele>365.820007</ele>
<time>2021-04-10T21:18:37.439Z</time>
</trkpt>
<trkpt lat="31.7997800" lon="35.0006700">
<ele>360.200012</ele>
<time>2021-04-10T21:18:37.439Z</time>
</trkpt>
<trkpt lat="31.7994900" lon="35.0009400">
<ele>354.980011</ele>
<time>2021-04-10T21:18:37.439Z</time>
</trkpt>
<trkpt lat="31.7992400" lon="35.0010400">
<ele>361.000000</ele>
<time>2021-04-10T21:18:37.440Z</time>
</trkpt>
<trkpt lat="31.7992400" lon="35.0010400">
<ele>361.000000</ele>
<time>2021-04-10T21:18:37.440Z</time>
</trkpt>
<trkpt lat="31.7992400" lon="35.0010500">
<ele>360.869995</ele>
<time>2021-04-10T21:18:37.440Z</time>
</trkpt>
<trkpt lat="31.7990800" lon="35.0010800">
<ele>365.829987</ele>
<time>2021-04-10T21:18:37.440Z</time>
</trkpt>
<trkpt lat="31.7989600" lon="35.0011200">
<ele>368.789978</ele>
<time>2021-04-10T21:18:37.440Z</time>
</trkpt>
<trkpt lat="31.7988500" lon="35.0011200">
<ele>370.649994</ele>
<time>2021-04-10T21:18:37.440Z</time>
</trkpt>
<trkpt lat="31.7987400" lon="35.0011000">
<ele>370.539978</ele>
<time>2021-04-10T21:18:37.440Z</time>
</trkpt>
<trkpt lat="31.7985400" lon="35.0009900">
<ele>368.789978</ele>
<time>2021-04-10T21:18:37.440Z</time>
</trkpt>
<trkpt lat="31.7982500" lon="35.0007800">
<ele>361.459991</ele>
<time>2021-04-10T21:18:37.440Z</time>
</trkpt>
<trkpt lat="31.7981600" lon="35.0007500">
<ele>358.840027</ele>
<time>2021-04-10T21:18:37.440Z</time>
</trkpt>
<trkpt lat="31.7981100" lon="35.0007300">
<ele>357.330017</ele>
<time>2021-04-10T21:18:37.440Z</time>
</trkpt>
<trkpt lat="31.7977500" lon="35.0007300">
<ele>346.269989</ele>
<time>2021-04-10T21:18:37.440Z</time>
</trkpt>
<trkpt lat="31.7975000" lon="35.0008000">
<ele>343.000000</ele>
<time>2021-04-10T21:18:37.440Z</time>
</trkpt>
<trkpt lat="31.7971400" lon="35.0008500">
<ele>345.860016</ele>
<time>2021-04-10T21:18:37.440Z</time>
</trkpt>
<trkpt lat="31.7967600" lon="35.0007400">
<ele>352.880005</ele>
<time>2021-04-10T21:18:37.440Z</time>
</trkpt>
<trkpt lat="31.7966600" lon="35.0007100">
<ele>354.589996</ele>
<time>2021-04-10T21:18:37.440Z</time>
</trkpt>
<trkpt lat="31.7963600" lon="35.0005400">
<ele>360.070007</ele>
<time>2021-04-10T21:18:37.440Z</time>
</trkpt>
<trkpt lat="31.7960100" lon="35.0004100">
<ele>359.470001</ele>
<time>2021-04-10T21:18:37.440Z</time>
</trkpt>
<trkpt lat="31.7958400" lon="35.0003600">
<ele>357.560028</ele>
<time>2021-04-10T21:18:37.440Z</time>
</trkpt>
<trkpt lat="31.7955200" lon="35.0004300">
<ele>360.179993</ele>
<time>2021-04-10T21:18:37.440Z</time>
</trkpt>
<trkpt lat="31.7949600" lon="35.0004600">
<ele>351.090027</ele>
<time>2021-04-10T21:18:37.440Z</time>
</trkpt>
<trkpt lat="31.7943900" lon="35.0006100">
<ele>351.549988</ele>
<time>2021-04-10T21:18:37.440Z</time>
</trkpt>
<trkpt lat="31.7943300" lon="35.0006800">
<ele>352.630005</ele>
<time>2021-04-10T21:18:37.440Z</time>
</trkpt>
<trkpt lat="31.7941000" lon="35.0005900">
<ele>352.609985</ele>
<time>2021-04-10T21:18:37.440Z</time>
</trkpt>
<trkpt lat="31.7940100" lon="35.0005000">
<ele>352.939972</ele>
<time>2021-04-10T21:18:37.440Z</time>
</trkpt>
<trkpt lat="31.7938800" lon="35.0005300">
<ele>354.890015</ele>
<time>2021-04-10T21:18:37.440Z</time>
</trkpt>
<trkpt lat="31.7936500" lon="35.0005100">
<ele>356.669983</ele>
<time>2021-04-10T21:18:37.440Z</time>
</trkpt>
<trkpt lat="31.7930800" lon="35.0005200">
<ele>362.500000</ele>
<time>2021-04-10T21:18:37.441Z</time>
</trkpt>
<trkpt lat="31.7928500" lon="35.0004600">
<ele>365.529999</ele>
<time>2021-04-10T21:18:37.441Z</time>
</trkpt>
<trkpt lat="31.7926800" lon="35.0003800">
<ele>367.649994</ele>
<time>2021-04-10T21:18:37.441Z</time>
</trkpt>
<trkpt lat="31.7925600" lon="35.0003000">
<ele>369.149994</ele>
<time>2021-04-10T21:18:37.441Z</time>
</trkpt>
<trkpt lat="31.7924800" lon="35.0002200">
<ele>370.459991</ele>
<time>2021-04-10T21:18:37.441Z</time>
</trkpt>
<trkpt lat="31.7924300" lon="35.0001300">
<ele>371.470001</ele>
<time>2021-04-10T21:18:37.441Z</time>
</trkpt>
<trkpt lat="31.7923800" lon="34.9999900">
<ele>373.319977</ele>
<time>2021-04-10T21:18:37.441Z</time>
</trkpt>
<trkpt lat="31.7923300" lon="34.9997500">
<ele>374.190002</ele>
<time>2021-04-10T21:18:37.441Z</time>
</trkpt>
<trkpt lat="31.7922800" lon="34.9996700">
<ele>374.359985</ele>
<time>2021-04-10T21:18:37.441Z</time>
</trkpt>
<trkpt lat="31.7921900" lon="34.9996000">
<ele>374.170013</ele>
<time>2021-04-10T21:18:37.441Z</time>
</trkpt>
<trkpt lat="31.7921000" lon="34.9995700">
<ele>374.149994</ele>
<time>2021-04-10T21:18:37.441Z</time>
</trkpt>
<trkpt lat="31.7919900" lon="34.9995000">
<ele>374.070007</ele>
<time>2021-04-10T21:18:37.441Z</time>
</trkpt>
<trkpt lat="31.7917600" lon="34.9992600">
<ele>377.309998</ele>
<time>2021-04-10T21:18:37.441Z</time>
</trkpt>
<trkpt lat="31.7914400" lon="34.9990000">
<ele>386.800018</ele>
<time>2021-04-10T21:18:37.441Z</time>
</trkpt>
<trkpt lat="31.7912100" lon="34.9987700">
<ele>387.440002</ele>
<time>2021-04-10T21:18:37.441Z</time>
</trkpt>
<trkpt lat="31.7910500" lon="34.9986300">
<ele>384.959991</ele>
<time>2021-04-10T21:18:37.441Z</time>
</trkpt>
<trkpt lat="31.7909600" lon="34.9985100">
<ele>382.640015</ele>
<time>2021-04-10T21:18:37.441Z</time>
</trkpt>
<trkpt lat="31.7908600" lon="34.9983200">
<ele>378.859985</ele>
<time>2021-04-10T21:18:37.441Z</time>
</trkpt>
<trkpt lat="31.7908700" lon="34.9981500">
<ele>375.830017</ele>
<time>2021-04-10T21:18:37.441Z</time>
</trkpt>
<trkpt lat="31.7908900" lon="34.9981000">
<ele>375.000000</ele>
<time>2021-04-10T21:18:37.441Z</time>
</trkpt>
<trkpt lat="31.7909600" lon="34.9980400">
<ele>374.320007</ele>
<time>2021-04-10T21:18:37.441Z</time>
</trkpt>
<trkpt lat="31.7910500" lon="34.9980100">
<ele>374.229980</ele>
<time>2021-04-10T21:18:37.441Z</time>
</trkpt>
<trkpt lat="31.7913700" lon="34.9980700">
<ele>377.169983</ele>
<time>2021-04-10T21:18:37.441Z</time>
</trkpt>
<trkpt lat="31.7913900" lon="34.9980700">
<ele>377.299988</ele>
<time>2021-04-10T21:18:37.441Z</time>
</trkpt>
<trkpt lat="31.7913900" lon="34.9980700">
<ele>377.299988</ele>
<time>2021-04-10T21:18:37.441Z</time>
</trkpt>
<trkpt lat="31.7914500" lon="34.9980500">
<ele>376.420013</ele>
<time>2021-04-10T21:18:37.441Z</time>
</trkpt>
<trkpt lat="31.7915400" lon="34.9980200">
<ele>375.020020</ele>
<time>2021-04-10T21:18:37.442Z</time>
</trkpt>
<trkpt lat="31.7916300" lon="34.9979500">
<ele>372.600006</ele>
<time>2021-04-10T21:18:37.442Z</time>
</trkpt>
<trkpt lat="31.7918100" lon="34.9977700">
<ele>367.899994</ele>
<time>2021-04-10T21:18:37.442Z</time>
</trkpt>
<trkpt lat="31.7919600" lon="34.9976700">
<ele>366.869995</ele>
<time>2021-04-10T21:18:37.442Z</time>
</trkpt>
<trkpt lat="31.7921700" lon="34.9977600">
<ele>368.569977</ele>
<time>2021-04-10T21:18:37.442Z</time>
</trkpt>
<trkpt lat="31.7924400" lon="34.9977500">
<ele>367.190002</ele>
<time>2021-04-10T21:18:37.442Z</time>
</trkpt>
<trkpt lat="31.7925700" lon="34.9977300">
<ele>367.239990</ele>
<time>2021-04-10T21:18:37.442Z</time>
</trkpt>
<trkpt lat="31.7928400" lon="34.9976100">
<ele>367.899994</ele>
<time>2021-04-10T21:18:37.442Z</time>
</trkpt>
<trkpt lat="31.7930900" lon="34.9974500">
<ele>371.929993</ele>
<time>2021-04-10T21:18:37.442Z</time>
</trkpt>
<trkpt lat="31.7937300" lon="34.9971900">
<ele>375.350006</ele>
<time>2021-04-10T21:18:37.442Z</time>
</trkpt>
<trkpt lat="31.7940200" lon="34.9970300">
<ele>376.470001</ele>
<time>2021-04-10T21:18:37.442Z</time>
</trkpt>
<trkpt lat="31.7943000" lon="34.9968900">
<ele>375.209991</ele>
<time>2021-04-10T21:18:37.442Z</time>
</trkpt>
<trkpt lat="31.7945900" lon="34.9967000">
<ele>374.869995</ele>
<time>2021-04-10T21:18:37.442Z</time>
</trkpt>
<trkpt lat="31.7948100" lon="34.9966000">
<ele>377.040009</ele>
<time>2021-04-10T21:18:37.442Z</time>
</trkpt>
<trkpt lat="31.7949000" lon="34.9965900">
<ele>377.660004</ele>
<time>2021-04-10T21:18:37.442Z</time>
</trkpt>
<trkpt lat="31.7949700" lon="34.9966000">
<ele>378.050018</ele>
<time>2021-04-10T21:18:37.442Z</time>
</trkpt>
<trkpt lat="31.7951600" lon="34.9966800">
<ele>380.739990</ele>
<time>2021-04-10T21:18:37.442Z</time>
</trkpt>
<trkpt lat="31.7955200" lon="34.9968900">
<ele>381.989990</ele>
<time>2021-04-10T21:18:37.442Z</time>
</trkpt>
<trkpt lat="31.7956000" lon="34.9969600">
<ele>381.610016</ele>
<time>2021-04-10T21:18:37.442Z</time>
</trkpt>
<trkpt lat="31.7958500" lon="34.9971300">
<ele>377.819977</ele>
<time>2021-04-10T21:18:37.442Z</time>
</trkpt>
<trkpt lat="31.7962700" lon="34.9973600">
<ele>370.640015</ele>
<time>2021-04-10T21:18:37.442Z</time>
</trkpt>
<trkpt lat="31.7965100" lon="34.9974500">
<ele>365.489990</ele>
<time>2021-04-10T21:18:37.442Z</time>
</trkpt>
<trkpt lat="31.7967600" lon="34.9974500">
<ele>360.320007</ele>
<time>2021-04-10T21:18:37.442Z</time>
</trkpt>
<trkpt lat="31.7969400" lon="34.9974300">
<ele>357.080017</ele>
<time>2021-04-10T21:18:37.442Z</time>
</trkpt>
<trkpt lat="31.7970800" lon="34.9973900">
<ele>354.369995</ele>
<time>2021-04-10T21:18:37.442Z</time>
</trkpt>
<trkpt lat="31.7973800" lon="34.9973500">
<ele>351.199982</ele>
<time>2021-04-10T21:18:37.442Z</time>
</trkpt>
<trkpt lat="31.7974600" lon="34.9973000">
<ele>351.040009</ele>
<time>2021-04-10T21:18:37.442Z</time>
</trkpt>
<trkpt lat="31.7975900" lon="34.9972400">
<ele>352.580017</ele>
<time>2021-04-10T21:18:37.443Z</time>
</trkpt>
<trkpt lat="31.7977400" lon="34.9971300">
<ele>353.799988</ele>
<time>2021-04-10T21:18:37.443Z</time>
</trkpt>
<trkpt lat="31.7979800" lon="34.9969100">
<ele>350.769989</ele>
<time>2021-04-10T21:18:37.443Z</time>
</trkpt>
<trkpt lat="31.7980900" lon="34.9967800">
<ele>350.610016</ele>
<time>2021-04-10T21:18:37.443Z</time>
</trkpt>
<trkpt lat="31.7982500" lon="34.9966000">
<ele>350.610016</ele>
<time>2021-04-10T21:18:37.443Z</time>
</trkpt>
<trkpt lat="31.7983200" lon="34.9965000">
<ele>350.079987</ele>
<time>2021-04-10T21:18:37.443Z</time>
</trkpt>
<trkpt lat="31.7983200" lon="34.9965000">
<ele>350.079987</ele>
<time>2021-04-10T21:18:37.443Z</time>
</trkpt>
<trkpt lat="31.7983200" lon="34.9965000">
<ele>350.079987</ele>
<time>2021-04-10T21:18:37.443Z</time>
</trkpt>
<trkpt lat="31.7983200" lon="34.9965000">
<ele>350.079987</ele>
<time>2021-04-10T21:18:37.443Z</time>
</trkpt>
<trkpt lat="31.7984900" lon="34.9962800">
<ele>347.920013</ele>
<time>2021-04-10T21:18:37.443Z</time>
</trkpt>
<trkpt lat="31.7988000" lon="34.9959900">
<ele>347.150024</ele>
<time>2021-04-10T21:18:37.443Z</time>
</trkpt>
<trkpt lat="31.7991500" lon="34.9956000">
<ele>347.049988</ele>
<time>2021-04-10T21:18:37.443Z</time>
</trkpt>
<trkpt lat="31.7993200" lon="34.9953800">
<ele>345.759979</ele>
<time>2021-04-10T21:18:37.443Z</time>
</trkpt>
<trkpt lat="31.7995800" lon="34.9949700">
<ele>342.989990</ele>
<time>2021-04-10T21:18:37.443Z</time>
</trkpt>
<trkpt lat="31.7997600" lon="34.9947700">
<ele>339.679993</ele>
<time>2021-04-10T21:18:37.443Z</time>
</trkpt>
<trkpt lat="31.7999900" lon="34.9946400">
<ele>338.469971</ele>
<time>2021-04-10T21:18:37.443Z</time>
</trkpt>
<trkpt lat="31.8001300" lon="34.9946200">
<ele>338.380005</ele>
<time>2021-04-10T21:18:37.443Z</time>
</trkpt>
<trkpt lat="31.8002500" lon="34.9946200">
<ele>338.580017</ele>
<time>2021-04-10T21:18:37.443Z</time>
</trkpt>
<trkpt lat="31.8005700" lon="34.9946800">
<ele>336.649994</ele>
<time>2021-04-10T21:18:37.443Z</time>
</trkpt>
<trkpt lat="31.8006900" lon="34.9946800">
<ele>337.510010</ele>
<time>2021-04-10T21:18:37.443Z</time>
</trkpt>
<trkpt lat="31.8008200" lon="34.9946600">
<ele>338.230011</ele>
<time>2021-04-10T21:18:37.443Z</time>
</trkpt>
<trkpt lat="31.8009800" lon="34.9945800">
<ele>339.849976</ele>
<time>2021-04-10T21:18:37.443Z</time>
</trkpt>
<trkpt lat="31.8011000" lon="34.9944800">
<ele>341.059998</ele>
<time>2021-04-10T21:18:37.443Z</time>
</trkpt>
<trkpt lat="31.8011400" lon="34.9944400">
<ele>341.299988</ele>
<time>2021-04-10T21:18:37.443Z</time>
</trkpt>
<trkpt lat="31.8011900" lon="34.9943800">
<ele>341.750000</ele>
<time>2021-04-10T21:18:37.443Z</time>
</trkpt>
<trkpt lat="31.8012500" lon="34.9943000">
<ele>342.500000</ele>
<time>2021-04-10T21:18:37.443Z</time>
</trkpt>
<trkpt lat="31.8014300" lon="34.9939300">
<ele>344.249969</ele>
<time>2021-04-10T21:18:37.443Z</time>
</trkpt>
<trkpt lat="31.8015700" lon="34.9937100">
<ele>342.940002</ele>
<time>2021-04-10T21:18:37.444Z</time>
</trkpt>
<trkpt lat="31.8016600" lon="34.9935800">
<ele>341.869995</ele>
<time>2021-04-10T21:18:37.444Z</time>
</trkpt>
<trkpt lat="31.8017200" lon="34.9935300">
<ele>341.809998</ele>
<time>2021-04-10T21:18:37.444Z</time>
</trkpt>
<trkpt lat="31.8017200" lon="34.9935300">
<ele>341.809998</ele>
<time>2021-04-10T21:18:37.444Z</time>
</trkpt>
<trkpt lat="31.8017900" lon="34.9934700">
<ele>341.250031</ele>
<time>2021-04-10T21:18:37.444Z</time>
</trkpt>
<trkpt lat="31.8019200" lon="34.9933900">
<ele>339.399994</ele>
<time>2021-04-10T21:18:37.444Z</time>
</trkpt>
<trkpt lat="31.8020000" lon="34.9933600">
<ele>337.940002</ele>
<time>2021-04-10T21:18:37.444Z</time>
</trkpt>
<trkpt lat="31.8021500" lon="34.9932900">
<ele>335.269989</ele>
<time>2021-04-10T21:18:37.444Z</time>
</trkpt>
<trkpt lat="31.8022000" lon="34.9932800">
<ele>334.650024</ele>
<time>2021-04-10T21:18:37.444Z</time>
</trkpt>
<trkpt lat="31.8026900" lon="34.9930500">
<ele>332.380005</ele>
<time>2021-04-10T21:18:37.444Z</time>
</trkpt>
<trkpt lat="31.8029500" lon="34.9928700">
<ele>336.979980</ele>
<time>2021-04-10T21:18:37.444Z</time>
</trkpt>
<trkpt lat="31.8031100" lon="34.9927000">
<ele>342.020020</ele>
<time>2021-04-10T21:18:37.444Z</time>
</trkpt>
<trkpt lat="31.8032000" lon="34.9925700">
<ele>344.649994</ele>
<time>2021-04-10T21:18:37.444Z</time>
</trkpt>
<trkpt lat="31.8033200" lon="34.9923600">
<ele>343.890015</ele>
<time>2021-04-10T21:18:37.444Z</time>
</trkpt>
<trkpt lat="31.8034300" lon="34.9921500">
<ele>342.779999</ele>
<time>2021-04-10T21:18:37.444Z</time>
</trkpt>
<trkpt lat="31.8035400" lon="34.9919200">
<ele>340.900024</ele>
<time>2021-04-10T21:18:37.444Z</time>
</trkpt>
<trkpt lat="31.8035900" lon="34.9918200">
<ele>340.010010</ele>
<time>2021-04-10T21:18:37.444Z</time>
</trkpt>
<trkpt lat="31.8037100" lon="34.9916300">
<ele>337.250000</ele>
<time>2021-04-10T21:18:37.444Z</time>
</trkpt>
<trkpt lat="31.8037700" lon="34.9915600">
<ele>336.279999</ele>
<time>2021-04-10T21:18:37.444Z</time>
</trkpt>
<trkpt lat="31.8039100" lon="34.9915300">
<ele>335.070007</ele>
<time>2021-04-10T21:18:37.444Z</time>
</trkpt>
<trkpt lat="31.8041800" lon="34.9915600">
<ele>329.970001</ele>
<time>2021-04-10T21:18:37.444Z</time>
</trkpt>
<trkpt lat="31.8043700" lon="34.9914900">
<ele>326.890015</ele>
<time>2021-04-10T21:18:37.444Z</time>
</trkpt>
<trkpt lat="31.8055600" lon="34.9906800">
<ele>317.549988</ele>
<time>2021-04-10T21:18:37.444Z</time>
</trkpt>
<trkpt lat="31.8060800" lon="34.9905000">
<ele>321.290009</ele>
<time>2021-04-10T21:18:37.444Z</time>
</trkpt>
<trkpt lat="31.8063400" lon="34.9904700">
<ele>320.079987</ele>
<time>2021-04-10T21:18:37.444Z</time>
</trkpt>
<trkpt lat="31.8066700" lon="34.9904500">
<ele>325.880005</ele>
<time>2021-04-10T21:18:37.444Z</time>
</trkpt>
<trkpt lat="31.8067800" lon="34.9904600">
<ele>326.659973</ele>
<time>2021-04-10T21:18:37.444Z</time>
</trkpt>
<trkpt lat="31.8069400" lon="34.9905300">
<ele>327.890015</ele>
<time>2021-04-10T21:18:37.445Z</time>
</trkpt>
<trkpt lat="31.8071900" lon="34.9907200">
<ele>326.529999</ele>
<time>2021-04-10T21:18:37.445Z</time>
</trkpt>
<trkpt lat="31.8073400" lon="34.9909200">
<ele>324.930023</ele>
<time>2021-04-10T21:18:37.445Z</time>
</trkpt>
<trkpt lat="31.8075500" lon="34.9912900">
<ele>319.729980</ele>
<time>2021-04-10T21:18:37.445Z</time>
</trkpt>
<trkpt lat="31.8077000" lon="34.9914600">
<ele>314.820007</ele>
<time>2021-04-10T21:18:37.445Z</time>
</trkpt>
<trkpt lat="31.8078800" lon="34.9915300">
<ele>313.220001</ele>
<time>2021-04-10T21:18:37.445Z</time>
</trkpt>
<trkpt lat="31.8080800" lon="34.9914300">
<ele>311.750000</ele>
<time>2021-04-10T21:18:37.445Z</time>
</trkpt>
<trkpt lat="31.8094800" lon="34.9902500">
<ele>309.640015</ele>
<time>2021-04-10T21:18:37.445Z</time>
</trkpt>
<trkpt lat="31.8102400" lon="34.9896700">
<ele>313.580017</ele>
<time>2021-04-10T21:18:37.445Z</time>
</trkpt>
<trkpt lat="31.8104200" lon="34.9895800">
<ele>310.649994</ele>
<time>2021-04-10T21:18:37.445Z</time>
</trkpt>
<trkpt lat="31.8106100" lon="34.9895400">
<ele>306.940002</ele>
<time>2021-04-10T21:18:37.445Z</time>
</trkpt>
<trkpt lat="31.8107900" lon="34.9895400">
<ele>305.380005</ele>
<time>2021-04-10T21:18:37.445Z</time>
</trkpt>
<trkpt lat="31.8108800" lon="34.9895600">
<ele>305.709991</ele>
<time>2021-04-10T21:18:37.445Z</time>
</trkpt>
<trkpt lat="31.8108800" lon="34.9895700">
<ele>305.730011</ele>
<time>2021-04-10T21:18:37.445Z</time>
</trkpt>
<trkpt lat="31.8108800" lon="34.9895700">
<ele>305.730011</ele>
<time>2021-04-10T21:18:37.445Z</time>
</trkpt>
<trkpt lat="31.8108800" lon="34.9895600">
<ele>305.709991</ele>
<time>2021-04-10T21:18:37.445Z</time>
</trkpt>
<trkpt lat="31.8111300" lon="34.9896000">
<ele>309.929993</ele>
<time>2021-04-10T21:18:37.445Z</time>
</trkpt>
<trkpt lat="31.8112900" lon="34.9894900">
<ele>310.100006</ele>
<time>2021-04-10T21:18:37.445Z</time>
</trkpt>
<trkpt lat="31.8116000" lon="34.9893200">
<ele>309.549988</ele>
<time>2021-04-10T21:18:37.445Z</time>
</trkpt>
<trkpt lat="31.8117500" lon="34.9892600">
<ele>309.240021</ele>
<time>2021-04-10T21:18:37.445Z</time>
</trkpt>
<trkpt lat="31.8121700" lon="34.9891300">
<ele>307.600006</ele>
<time>2021-04-10T21:18:37.445Z</time>
</trkpt>
<trkpt lat="31.8126000" lon="34.9892000">
<ele>316.029999</ele>
<time>2021-04-10T21:18:37.445Z</time>
</trkpt>
<trkpt lat="31.8134300" lon="34.9893500">
<ele>328.559998</ele>
<time>2021-04-10T21:18:37.445Z</time>
</trkpt>
<trkpt lat="31.8142200" lon="34.9896500">
<ele>319.030029</ele>
<time>2021-04-10T21:18:37.445Z</time>
</trkpt>
<trkpt lat="31.8148500" lon="34.9900100">
<ele>312.220001</ele>
<time>2021-04-10T21:18:37.445Z</time>
</trkpt>
<trkpt lat="31.8152100" lon="34.9902100">
<ele>305.049988</ele>
<time>2021-04-10T21:18:37.445Z</time>
</trkpt>
<trkpt lat="31.8155400" lon="34.9903200">
<ele>298.850006</ele>
<time>2021-04-10T21:18:37.445Z</time>
</trkpt>
<trkpt lat="31.8157500" lon="34.9903700">
<ele>298.570007</ele>
<time>2021-04-10T21:18:37.446Z</time>
</trkpt>
<trkpt lat="31.8159800" lon="34.9903100">
<ele>296.589996</ele>
<time>2021-04-10T21:18:37.446Z</time>
</trkpt>
<trkpt lat="31.8166800" lon="34.9901800">
<ele>285.679993</ele>
<time>2021-04-10T21:18:37.446Z</time>
</trkpt>
<trkpt lat="31.8170400" lon="34.9900900">
<ele>292.739990</ele>
<time>2021-04-10T21:18:37.446Z</time>
</trkpt>
<trkpt lat="31.8172100" lon="34.9900500">
<ele>297.210022</ele>
<time>2021-04-10T21:18:37.446Z</time>
</trkpt>
<trkpt lat="31.8173700" lon="34.9900100">
<ele>299.220001</ele>
<time>2021-04-10T21:18:37.446Z</time>
</trkpt>
<trkpt lat="31.8173800" lon="34.9899800">
<ele>299.250000</ele>
<time>2021-04-10T21:18:37.446Z</time>
</trkpt>
<trkpt lat="31.8173800" lon="34.9899800">
<ele>299.250000</ele>
<time>2021-04-10T21:18:37.446Z</time>
</trkpt>
<trkpt lat="31.8174900" lon="34.9896100">
<ele>299.429993</ele>
<time>2021-04-10T21:18:37.446Z</time>
</trkpt>
<trkpt lat="31.8174700" lon="34.9893400">
<ele>300.380005</ele>
<time>2021-04-10T21:18:37.446Z</time>
</trkpt>
<trkpt lat="31.8173500" lon="34.9889200">
<ele>306.450012</ele>
<time>2021-04-10T21:18:37.446Z</time>
</trkpt>
<trkpt lat="31.8162200" lon="34.9882300">
<ele>316.910004</ele>
<time>2021-04-10T21:18:37.446Z</time>
</trkpt>
<trkpt lat="31.8160900" lon="34.9880600">
<ele>310.989990</ele>
<time>2021-04-10T21:18:37.446Z</time>
</trkpt>
<trkpt lat="31.8160300" lon="34.9878500">
<ele>307.239990</ele>
<time>2021-04-10T21:18:37.446Z</time>
</trkpt>
<trkpt lat="31.8160200" lon="34.9875500">
<ele>301.609985</ele>
<time>2021-04-10T21:18:37.446Z</time>
</trkpt>
<trkpt lat="31.8160400" lon="34.9873000">
<ele>299.380005</ele>
<time>2021-04-10T21:18:37.446Z</time>
</trkpt>
<trkpt lat="31.8160800" lon="34.9866800">
<ele>305.600006</ele>
<time>2021-04-10T21:18:37.446Z</time>
</trkpt>
<trkpt lat="31.8160500" lon="34.9866700">
<ele>305.519989</ele>
<time>2021-04-10T21:18:37.446Z</time>
</trkpt>
<trkpt lat="31.8160500" lon="34.9866700">
<ele>305.519989</ele>
<time>2021-04-10T21:18:37.446Z</time>
</trkpt>
<trkpt lat="31.8161000" lon="34.9857500">
<ele>306.040009</ele>
<time>2021-04-10T21:18:37.446Z</time>
</trkpt>
<trkpt lat="31.8161100" lon="34.9844000">
<ele>303.779999</ele>
<time>2021-04-10T21:18:37.446Z</time>
</trkpt>
<trkpt lat="31.8160700" lon="34.9840700">
<ele>308.109985</ele>
<time>2021-04-10T21:18:37.446Z</time>
</trkpt>
<trkpt lat="31.8160500" lon="34.9837700">
<ele>311.420013</ele>
<time>2021-04-10T21:18:37.446Z</time>
</trkpt>
<trkpt lat="31.8160400" lon="34.9835400">
<ele>313.139984</ele>
<time>2021-04-10T21:18:37.446Z</time>
</trkpt>
<trkpt lat="31.8160300" lon="34.9834900">
<ele>312.829987</ele>
<time>2021-04-10T21:18:37.446Z</time>
</trkpt>
<trkpt lat="31.8160200" lon="34.9834500">
<ele>312.510010</ele>
<time>2021-04-10T21:18:37.446Z</time>
</trkpt>
<trkpt lat="31.8160200" lon="34.9834100">
<ele>312.470001</ele>
<time>2021-04-10T21:18:37.446Z</time>
</trkpt>
<trkpt lat="31.8160100" lon="34.9833700">
<ele>312.140015</ele>
<time>2021-04-10T21:18:37.446Z</time>
</trkpt>
<trkpt lat="31.8159500" lon="34.9828600">
<ele>305.839996</ele>
<time>2021-04-10T21:18:37.446Z</time>
</trkpt>
<trkpt lat="31.8159500" lon="34.9826700">
<ele>302.580017</ele>
<time>2021-04-10T21:18:37.446Z</time>
</trkpt>
<trkpt lat="31.8159600" lon="34.9823100">
<ele>296.860016</ele>
<time>2021-04-10T21:18:37.446Z</time>
</trkpt>
<trkpt lat="31.8160300" lon="34.9819800">
<ele>295.250000</ele>
<time>2021-04-10T21:18:37.447Z</time>
</trkpt>
<trkpt lat="31.8161300" lon="34.9814900">
<ele>293.809998</ele>
<time>2021-04-10T21:18:37.447Z</time>
</trkpt>
<trkpt lat="31.8162300" lon="34.9815000">
<ele>294.309998</ele>
<time>2021-04-10T21:18:37.447Z</time>
</trkpt>
<trkpt lat="31.8162600" lon="34.9815300">
<ele>294.540009</ele>
<time>2021-04-10T21:18:37.447Z</time>
</trkpt>
<trkpt lat="31.8163000" lon="34.9815500">
<ele>294.729980</ele>
<time>2021-04-10T21:18:37.447Z</time>
</trkpt>
<trkpt lat="31.8163300" lon="34.9815700">
<ele>294.850006</ele>
<time>2021-04-10T21:18:37.447Z</time>
</trkpt>
<trkpt lat="31.8163600" lon="34.9815800">
<ele>294.940002</ele>
<time>2021-04-10T21:18:37.447Z</time>
</trkpt>
<trkpt lat="31.8163900" lon="34.9815900">
<ele>294.980011</ele>
<time>2021-04-10T21:18:37.447Z</time>
</trkpt>
<trkpt lat="31.8164200" lon="34.9816000">
<ele>294.470001</ele>
<time>2021-04-10T21:18:37.447Z</time>
</trkpt>
<trkpt lat="31.8164800" lon="34.9816200">
<ele>293.420013</ele>
<time>2021-04-10T21:18:37.447Z</time>
</trkpt>
<trkpt lat="31.8166400" lon="34.9817000">
<ele>290.480011</ele>
<time>2021-04-10T21:18:37.447Z</time>
</trkpt>
<trkpt lat="31.8166700" lon="34.9817400">
<ele>289.959991</ele>
<time>2021-04-10T21:18:37.447Z</time>
</trkpt>
<trkpt lat="31.8167000" lon="34.9817600">
<ele>289.639984</ele>
<time>2021-04-10T21:18:37.447Z</time>
</trkpt>
<trkpt lat="31.8169200" lon="34.9818700">
<ele>288.350006</ele>
<time>2021-04-10T21:18:37.447Z</time>
</trkpt>
<trkpt lat="31.8169600" lon="34.9818600">
<ele>287.700012</ele>
<time>2021-04-10T21:18:37.447Z</time>
</trkpt>
<trkpt lat="31.8169800" lon="34.9818400">
<ele>286.980011</ele>
<time>2021-04-10T21:18:37.447Z</time>
</trkpt>
<trkpt lat="31.8170100" lon="34.9818100">
<ele>285.899994</ele>
<time>2021-04-10T21:18:37.447Z</time>
</trkpt>
<trkpt lat="31.8171700" lon="34.9817000">
<ele>280.679993</ele>
<time>2021-04-10T21:18:37.447Z</time>
</trkpt>
<trkpt lat="31.8172400" lon="34.9817100">
<ele>279.239990</ele>
<time>2021-04-10T21:18:37.447Z</time>
</trkpt>
<trkpt lat="31.8172900" lon="34.9817400">
<ele>278.800018</ele>
<time>2021-04-10T21:18:37.447Z</time>
</trkpt>
<trkpt lat="31.8173800" lon="34.9817800">
<ele>277.589996</ele>
<time>2021-04-10T21:18:37.447Z</time>
</trkpt>
<trkpt lat="31.8176600" lon="34.9818500">
<ele>274.190002</ele>
<time>2021-04-10T21:18:37.447Z</time>
</trkpt>
<trkpt lat="31.8177100" lon="34.9818400">
<ele>273.859985</ele>
<time>2021-04-10T21:18:37.447Z</time>
</trkpt>
<trkpt lat="31.8179000" lon="34.9818000">
<ele>273.290009</ele>
<time>2021-04-10T21:18:37.447Z</time>
</trkpt>
<trkpt lat="31.8180100" lon="34.9818000">
<ele>273.089996</ele>
<time>2021-04-10T21:18:37.447Z</time>
</trkpt>
<trkpt lat="31.8180500" lon="34.9818200">
<ele>273.010010</ele>
<time>2021-04-10T21:18:37.447Z</time>
</trkpt>
<trkpt lat="31.8180900" lon="34.9818400">
<ele>272.610016</ele>
<time>2021-04-10T21:18:37.447Z</time>
</trkpt>
<trkpt lat="31.8181100" lon="34.9818700">
<ele>272.449982</ele>
<time>2021-04-10T21:18:37.447Z</time>
</trkpt>
<trkpt lat="31.8181300" lon="34.9818900">
<ele>272.309998</ele>
<time>2021-04-10T21:18:37.447Z</time>
</trkpt>
<trkpt lat="31.8181500" lon="34.9819100">
<ele>272.190002</ele>
<time>2021-04-10T21:18:37.447Z</time>
</trkpt>
<trkpt lat="31.8181700" lon="34.9819200">
<ele>272.070007</ele>
<time>2021-04-10T21:18:37.447Z</time>
</trkpt>
<trkpt lat="31.8181500" lon="34.9819200">
<ele>272.230011</ele>
<time>2021-04-10T21:18:37.448Z</time>
</trkpt>
<trkpt lat="31.8182000" lon="34.9819500">
<ele>271.970001</ele>
<time>2021-04-10T21:18:37.448Z</time>
</trkpt>
<trkpt lat="31.8186200" lon="34.9821900">
<ele>269.619995</ele>
<time>2021-04-10T21:18:37.448Z</time>
</trkpt>
<trkpt lat="31.8191400" lon="34.9824500">
<ele>266.360016</ele>
<time>2021-04-10T21:18:37.448Z</time>
</trkpt>
<trkpt lat="31.8193400" lon="34.9825300">
<ele>264.600006</ele>
<time>2021-04-10T21:18:37.448Z</time>
</trkpt>
<trkpt lat="31.8196100" lon="34.9826300">
<ele>259.470001</ele>
<time>2021-04-10T21:18:37.448Z</time>
</trkpt>
<trkpt lat="31.8197700" lon="34.9826300">
<ele>255.369995</ele>
<time>2021-04-10T21:18:37.448Z</time>
</trkpt>
<trkpt lat="31.8199000" lon="34.9826100">
<ele>253.710007</ele>
<time>2021-04-10T21:18:37.448Z</time>
</trkpt>
<trkpt lat="31.8199500" lon="34.9825900">
<ele>252.750000</ele>
<time>2021-04-10T21:18:37.448Z</time>
</trkpt>
<trkpt lat="31.8201400" lon="34.9825100">
<ele>251.190002</ele>
<time>2021-04-10T21:18:37.448Z</time>
</trkpt>
<trkpt lat="31.8202000" lon="34.9825000">
<ele>251.440002</ele>
<time>2021-04-10T21:18:37.448Z</time>
</trkpt>
<trkpt lat="31.8202600" lon="34.9824900">
<ele>251.729996</ele>
<time>2021-04-10T21:18:37.448Z</time>
</trkpt>
<trkpt lat="31.8203300" lon="34.9824900">
<ele>251.309998</ele>
<time>2021-04-10T21:18:37.448Z</time>
</trkpt>
<trkpt lat="31.8203900" lon="34.9824900">
<ele>250.669998</ele>
<time>2021-04-10T21:18:37.448Z</time>
</trkpt>
<trkpt lat="31.8204500" lon="34.9825000">
<ele>250.139999</ele>
<time>2021-04-10T21:18:37.448Z</time>
</trkpt>
<trkpt lat="31.8206700" lon="34.9825400">
<ele>247.949997</ele>
<time>2021-04-10T21:18:37.448Z</time>
</trkpt>
<trkpt lat="31.8207200" lon="34.9825400">
<ele>247.180008</ele>
<time>2021-04-10T21:18:37.448Z</time>
</trkpt>
<trkpt lat="31.8208600" lon="34.9825600">
<ele>245.390015</ele>
<time>2021-04-10T21:18:37.448Z</time>
</trkpt>
<trkpt lat="31.8211800" lon="34.9826200">
<ele>242.399994</ele>
<time>2021-04-10T21:18:37.448Z</time>
</trkpt>
<trkpt lat="31.8212400" lon="34.9826400">
<ele>241.839996</ele>
<time>2021-04-10T21:18:37.448Z</time>
</trkpt>
<trkpt lat="31.8215000" lon="34.9827400">
<ele>240.769989</ele>
<time>2021-04-10T21:18:37.448Z</time>
</trkpt>
<trkpt lat="31.8215600" lon="34.9827700">
<ele>241.210007</ele>
<time>2021-04-10T21:18:37.448Z</time>
</trkpt>
<trkpt lat="31.8216000" lon="34.9827900">
<ele>241.639999</ele>
<time>2021-04-10T21:18:37.448Z</time>
</trkpt>
<trkpt lat="31.8216300" lon="34.9828200">
<ele>242.169998</ele>
<time>2021-04-10T21:18:37.448Z</time>
</trkpt>
<trkpt lat="31.8216500" lon="34.9828300">
<ele>242.430008</ele>
<time>2021-04-10T21:18:37.448Z</time>
</trkpt>
<trkpt lat="31.8217100" lon="34.9828500">
<ele>242.309998</ele>
<time>2021-04-10T21:18:37.448Z</time>
</trkpt>
<trkpt lat="31.8217400" lon="34.9828500">
<ele>241.989990</ele>
<time>2021-04-10T21:18:37.448Z</time>
</trkpt>
<trkpt lat="31.8217600" lon="34.9828600">
<ele>241.880005</ele>
<time>2021-04-10T21:18:37.448Z</time>
</trkpt>
<trkpt lat="31.8217800" lon="34.9828700">
<ele>241.770004</ele>
<time>2021-04-10T21:18:37.449Z</time>
</trkpt>
<trkpt lat="31.8220200" lon="34.9828600">
<ele>236.979996</ele>
<time>2021-04-10T21:18:37.449Z</time>
</trkpt>
<trkpt lat="31.8221200" lon="34.9827500">
<ele>231.949997</ele>
<time>2021-04-10T21:18:37.449Z</time>
</trkpt>
<trkpt lat="31.8221900" lon="34.9827000">
<ele>229.580002</ele>
<time>2021-04-10T21:18:37.449Z</time>
</trkpt>
<trkpt lat="31.8222100" lon="34.9827000">
<ele>228.950012</ele>
<time>2021-04-10T21:18:37.449Z</time>
</trkpt>
<trkpt lat="31.8222400" lon="34.9827100">
<ele>228.039993</ele>
<time>2021-04-10T21:18:37.449Z</time>
</trkpt>
<trkpt lat="31.8223500" lon="34.9827800">
<ele>224.800003</ele>
<time>2021-04-10T21:18:37.449Z</time>
</trkpt>
<trkpt lat="31.8226900" lon="34.9829800">
<ele>216.580002</ele>
<time>2021-04-10T21:18:37.449Z</time>
</trkpt>
<trkpt lat="31.8229900" lon="34.9831300">
<ele>210.459991</ele>
<time>2021-04-10T21:18:37.449Z</time>
</trkpt>
<trkpt lat="31.8230500" lon="34.9831600">
<ele>209.819992</ele>
<time>2021-04-10T21:18:37.449Z</time>
</trkpt>
<trkpt lat="31.8231600" lon="34.9831300">
<ele>209.739990</ele>
<time>2021-04-10T21:18:37.449Z</time>
</trkpt>
<trkpt lat="31.8232000" lon="34.9831100">
<ele>209.600006</ele>
<time>2021-04-10T21:18:37.449Z</time>
</trkpt>
<trkpt lat="31.8232300" lon="34.9830700">
<ele>209.169998</ele>
<time>2021-04-10T21:18:37.449Z</time>
</trkpt>
<trkpt lat="31.8232600" lon="34.9830400">
<ele>209.009995</ele>
<time>2021-04-10T21:18:37.449Z</time>
</trkpt>
<trkpt lat="31.8232800" lon="34.9829900">
<ele>209.049988</ele>
<time>2021-04-10T21:18:37.449Z</time>
</trkpt>
<trkpt lat="31.8233000" lon="34.9829400">
<ele>209.049988</ele>
<time>2021-04-10T21:18:37.449Z</time>
</trkpt>
<trkpt lat="31.8233100" lon="34.9828800">
<ele>209.049988</ele>
<time>2021-04-10T21:18:37.449Z</time>
</trkpt>
<trkpt lat="31.8233200" lon="34.9828200">
<ele>209.040009</ele>
<time>2021-04-10T21:18:37.449Z</time>
</trkpt>
<trkpt lat="31.8233200" lon="34.9827500">
<ele>209.029999</ele>
<time>2021-04-10T21:18:37.449Z</time>
</trkpt>
<trkpt lat="31.8233300" lon="34.9826900">
<ele>209.000000</ele>
<time>2021-04-10T21:18:37.449Z</time>
</trkpt>
<trkpt lat="31.8233400" lon="34.9824200">
<ele>208.690002</ele>
<time>2021-04-10T21:18:37.449Z</time>
</trkpt>
<trkpt lat="31.8233500" lon="34.9824000">
<ele>208.579987</ele>
<time>2021-04-10T21:18:37.449Z</time>
</trkpt>
<trkpt lat="31.8234100" lon="34.9822600">
<ele>207.860001</ele>
<time>2021-04-10T21:18:37.449Z</time>
</trkpt>
<trkpt lat="31.8234100" lon="34.9822300">
<ele>207.750000</ele>
<time>2021-04-10T21:18:37.449Z</time>
</trkpt>
<trkpt lat="31.8234200" lon="34.9821900">
<ele>207.740005</ele>
<time>2021-04-10T21:18:37.449Z</time>
</trkpt>
<trkpt lat="31.8234300" lon="34.9821600">
<ele>207.710007</ele>
<time>2021-04-10T21:18:37.449Z</time>
</trkpt>
<trkpt lat="31.8234400" lon="34.9821200">
<ele>207.650009</ele>
<time>2021-04-10T21:18:37.449Z</time>
</trkpt>
<trkpt lat="31.8234600" lon="34.9820800">
<ele>207.399994</ele>
<time>2021-04-10T21:18:37.449Z</time>
</trkpt>
<trkpt lat="31.8235000" lon="34.9819900">
<ele>206.560013</ele>
<time>2021-04-10T21:18:37.449Z</time>
</trkpt>
<trkpt lat="31.8236800" lon="34.9817200">
<ele>198.330002</ele>
<time>2021-04-10T21:18:37.449Z</time>
</trkpt>
<trkpt lat="31.8237600" lon="34.9816400">
<ele>195.739990</ele>
<time>2021-04-10T21:18:37.449Z</time>
</trkpt>
<trkpt lat="31.8238000" lon="34.9816200">
<ele>194.870010</ele>
<time>2021-04-10T21:18:37.450Z</time>
</trkpt>
<trkpt lat="31.8238400" lon="34.9816100">
<ele>194.020004</ele>
<time>2021-04-10T21:18:37.450Z</time>
</trkpt>
<trkpt lat="31.8238800" lon="34.9816000">
<ele>193.180008</ele>
<time>2021-04-10T21:18:37.450Z</time>
</trkpt>
<trkpt lat="31.8239200" lon="34.9815900">
<ele>192.970001</ele>
<time>2021-04-10T21:18:37.450Z</time>
</trkpt>
<trkpt lat="31.8239600" lon="34.9815900">
<ele>192.929993</ele>
<time>2021-04-10T21:18:37.450Z</time>
</trkpt>
<trkpt lat="31.8240400" lon="34.9816000">
<ele>192.869995</ele>
<time>2021-04-10T21:18:37.450Z</time>
</trkpt>
<trkpt lat="31.8240800" lon="34.9816000">
<ele>192.830002</ele>
<time>2021-04-10T21:18:37.450Z</time>
</trkpt>
<trkpt lat="31.8241700" lon="34.9816100">
<ele>192.800003</ele>
<time>2021-04-10T21:18:37.450Z</time>
</trkpt>
<trkpt lat="31.8241900" lon="34.9816100">
<ele>192.800003</ele>
<time>2021-04-10T21:18:37.450Z</time>
</trkpt>
<trkpt lat="31.8243200" lon="34.9814400">
<ele>192.180008</ele>
<time>2021-04-10T21:18:37.450Z</time>
</trkpt>
<trkpt lat="31.8243000" lon="34.9807400">
<ele>190.019989</ele>
<time>2021-04-10T21:18:37.450Z</time>
</trkpt>
<trkpt lat="31.8243100" lon="34.9806800">
<ele>189.650009</ele>
<time>2021-04-10T21:18:37.450Z</time>
</trkpt>
<trkpt lat="31.8243300" lon="34.9805100">
<ele>189.029999</ele>
<time>2021-04-10T21:18:37.450Z</time>
</trkpt>
<trkpt lat="31.8243500" lon="34.9804700">
<ele>188.990005</ele>
<time>2021-04-10T21:18:37.450Z</time>
</trkpt>
<trkpt lat="31.8243800" lon="34.9804400">
<ele>188.750000</ele>
<time>2021-04-10T21:18:37.450Z</time>
</trkpt>
<trkpt lat="31.8244200" lon="34.9804100">
<ele>188.309998</ele>
<time>2021-04-10T21:18:37.450Z</time>
</trkpt>
<trkpt lat="31.8244600" lon="34.9804000">
<ele>187.599991</ele>
<time>2021-04-10T21:18:37.450Z</time>
</trkpt>
<trkpt lat="31.8245000" lon="34.9803900">
<ele>186.559998</ele>
<time>2021-04-10T21:18:37.450Z</time>
</trkpt>
<trkpt lat="31.8245400" lon="34.9803900">
<ele>185.529999</ele>
<time>2021-04-10T21:18:37.450Z</time>
</trkpt>
<trkpt lat="31.8245900" lon="34.9803900">
<ele>184.229996</ele>
<time>2021-04-10T21:18:37.450Z</time>
</trkpt>
<trkpt lat="31.8246400" lon="34.9803900">
<ele>182.940002</ele>
<time>2021-04-10T21:18:37.450Z</time>
</trkpt>
<trkpt lat="31.8246900" lon="34.9803900">
<ele>181.639999</ele>
<time>2021-04-10T21:18:37.450Z</time>
</trkpt>
<trkpt lat="31.8249700" lon="34.9803500">
<ele>176.490005</ele>
<time>2021-04-10T21:18:37.450Z</time>
</trkpt>
<trkpt lat="31.8250200" lon="34.9803500">
<ele>175.910004</ele>
<time>2021-04-10T21:18:37.450Z</time>
</trkpt>
<trkpt lat="31.8254600" lon="34.9803500">
<ele>177.720001</ele>
<time>2021-04-10T21:18:37.450Z</time>
</trkpt>
<trkpt lat="31.8255200" lon="34.9803700">
<ele>178.780014</ele>
<time>2021-04-10T21:18:37.450Z</time>
</trkpt>
<trkpt lat="31.8256900" lon="34.9804600">
<ele>180.289993</ele>
<time>2021-04-10T21:18:37.450Z</time>
</trkpt>
<trkpt lat="31.8257600" lon="34.9804800">
<ele>180.800003</ele>
<time>2021-04-10T21:18:37.450Z</time>
</trkpt>
<trkpt lat="31.8258800" lon="34.9804900">
<ele>181.070007</ele>
<time>2021-04-10T21:18:37.451Z</time>
</trkpt>
<trkpt lat="31.8263600" lon="34.9804900">
<ele>180.900009</ele>
<time>2021-04-10T21:18:37.451Z</time>
</trkpt>
<trkpt lat="31.8269600" lon="34.9806200">
<ele>184.369995</ele>
<time>2021-04-10T21:18:37.451Z</time>
</trkpt>
<trkpt lat="31.8272000" lon="34.9806500">
<ele>186.809998</ele>
<time>2021-04-10T21:18:37.451Z</time>
</trkpt>
<trkpt lat="31.8272200" lon="34.9805900">
<ele>186.350006</ele>
<time>2021-04-10T21:18:37.451Z</time>
</trkpt>
<trkpt lat="31.8272500" lon="34.9804600">
<ele>185.789993</ele>
<time>2021-04-10T21:18:37.451Z</time>
</trkpt>
<trkpt lat="31.8274000" lon="34.9799200">
<ele>182.600006</ele>
<time>2021-04-10T21:18:37.451Z</time>
</trkpt>
<trkpt lat="31.8274700" lon="34.9797400">
<ele>180.400009</ele>
<time>2021-04-10T21:18:37.451Z</time>
</trkpt>
<trkpt lat="31.8274900" lon="34.9796900">
<ele>180.289993</ele>
<time>2021-04-10T21:18:37.451Z</time>
</trkpt>
<trkpt lat="31.8277200" lon="34.9789700">
<ele>183.380005</ele>
<time>2021-04-10T21:18:37.451Z</time>
</trkpt>
<trkpt lat="31.8277800" lon="34.9787100">
<ele>181.080002</ele>
<time>2021-04-10T21:18:37.451Z</time>
</trkpt>
<trkpt lat="31.8279400" lon="34.9782800">
<ele>178.000000</ele>
<time>2021-04-10T21:18:37.451Z</time>
</trkpt>
<trkpt lat="31.8279900" lon="34.9781300">
<ele>178.000000</ele>
<time>2021-04-10T21:18:37.451Z</time>
</trkpt>
<trkpt lat="31.8282800" lon="34.9770500">
<ele>177.450012</ele>
<time>2021-04-10T21:18:37.451Z</time>
</trkpt>
<trkpt lat="31.8284800" lon="34.9764900">
<ele>178.190002</ele>
<time>2021-04-10T21:18:37.451Z</time>
</trkpt>
<trkpt lat="31.8285000" lon="34.9764400">
<ele>178.110001</ele>
<time>2021-04-10T21:18:37.451Z</time>
</trkpt>
<trkpt lat="31.8285400" lon="34.9764000">
<ele>178.030014</ele>
<time>2021-04-10T21:18:37.451Z</time>
</trkpt>
<trkpt lat="31.8285800" lon="34.9763700">
<ele>177.940002</ele>
<time>2021-04-10T21:18:37.451Z</time>
</trkpt>
<trkpt lat="31.8286200" lon="34.9763500">
<ele>177.860016</ele>
<time>2021-04-10T21:18:37.451Z</time>
</trkpt>
<trkpt lat="31.8286600" lon="34.9763400">
<ele>177.790009</ele>
<time>2021-04-10T21:18:37.452Z</time>
</trkpt>
<trkpt lat="31.8287000" lon="34.9763400">
<ele>177.770004</ele>
<time>2021-04-10T21:18:37.452Z</time>
</trkpt>
<trkpt lat="31.8287300" lon="34.9763400">
<ele>177.750000</ele>
<time>2021-04-10T21:18:37.452Z</time>
</trkpt>
<trkpt lat="31.8287600" lon="34.9763500">
<ele>177.779999</ele>
<time>2021-04-10T21:18:37.452Z</time>
</trkpt>
<trkpt lat="31.8287900" lon="34.9763500">
<ele>177.770004</ele>
<time>2021-04-10T21:18:37.452Z</time>
</trkpt>
<trkpt lat="31.8292500" lon="34.9764100">
<ele>175.800003</ele>
<time>2021-04-10T21:18:37.452Z</time>
</trkpt>
<trkpt lat="31.8297700" lon="34.9765000">
<ele>177.699997</ele>
<time>2021-04-10T21:18:37.452Z</time>
</trkpt>
<trkpt lat="31.8301300" lon="34.9764400">
<ele>180.869995</ele>
<time>2021-04-10T21:18:37.452Z</time>
</trkpt>
<trkpt lat="31.8304000" lon="34.9763400">
<ele>184.960007</ele>
<time>2021-04-10T21:18:37.452Z</time>
</trkpt>
<trkpt lat="31.8306600" lon="34.9763100">
<ele>185.569992</ele>
<time>2021-04-10T21:18:37.452Z</time>
</trkpt>
<trkpt lat="31.8309400" lon="34.9762300">
<ele>183.980011</ele>
<time>2021-04-10T21:18:37.452Z</time>
</trkpt>
<trkpt lat="31.8313800" lon="34.9761400">
<ele>181.849991</ele>
<time>2021-04-10T21:18:37.452Z</time>
</trkpt>
<trkpt lat="31.8317600" lon="34.9762000">
<ele>190.410004</ele>
<time>2021-04-10T21:18:37.452Z</time>
</trkpt>
<trkpt lat="31.8319700" lon="34.9762600">
<ele>193.220001</ele>
<time>2021-04-10T21:18:37.452Z</time>
</trkpt>
<trkpt lat="31.8323900" lon="34.9765500">
<ele>197.369995</ele>
<time>2021-04-10T21:18:37.452Z</time>
</trkpt>
<trkpt lat="31.8323900" lon="34.9765900">
<ele>197.319992</ele>
<time>2021-04-10T21:18:37.452Z</time>
</trkpt>
<trkpt lat="31.8323800" lon="34.9766400">
<ele>197.180008</ele>
<time>2021-04-10T21:18:37.452Z</time>
</trkpt>
<trkpt lat="31.8322500" lon="34.9771300">
<ele>194.599991</ele>
<time>2021-04-10T21:18:37.452Z</time>
</trkpt>
<trkpt lat="31.8321200" lon="34.9775800">
<ele>197.649994</ele>
<time>2021-04-10T21:18:37.452Z</time>
</trkpt>
<trkpt lat="31.8321100" lon="34.9778000">
<ele>202.929993</ele>
<time>2021-04-10T21:18:37.452Z</time>
</trkpt>
<trkpt lat="31.8322600" lon="34.9780000">
<ele>207.379990</ele>
<time>2021-04-10T21:18:37.452Z</time>
</trkpt>
<trkpt lat="31.8324000" lon="34.9782400">
<ele>213.479996</ele>
<time>2021-04-10T21:18:37.452Z</time>
</trkpt>
<trkpt lat="31.8324700" lon="34.9784300">
<ele>217.139999</ele>
<time>2021-04-10T21:18:37.452Z</time>
</trkpt>
</trkseg>
</trk>
</gpx>
